Wetterdaten: Donnerstag, 18.05.2017
Datum Zeit Temp. Aussen Temp. o. S. +5cm Feuchte Auss BlattFeu 1 Luftdruck Regen Sonnenschein Regendauer Solar Windben Empfang
18.05.2017 00:00 22,3 C 21,7 C 18,9 C 59 % 0 lf 1009,5 hPa 0,0 l/m 0 min 0 min 0 W/m 10,5 km/h (2 Bft) 91,49 %
18.05.2017 00:02 22,3 C 21,7 C 18,3 C 59 % 0 lf 1009,5 hPa 0,0 l/m 0 min 0 min 0 W/m 10,5 km/h (2 Bft) 92,86 %
18.05.2017 00:04 22,2 C 21,1 C 18,3 C 60 % 0 lf 1009,5 hPa 0,0 l/m 0 min 0 min 0 W/m 8,4 km/h (2 Bft) 97,87 %
18.05.2017 00:06 22,2 C 21,1 C 18,3 C 60 % 0 lf 1009,5 hPa 0,0 l/m 0 min 0 min 0 W/m 8,4 km/h (2 Bft) 93,48 %
18.05.2017 00:10 22,1 C 21,1 C 18,3 C 60 % 0 lf 1009,5 hPa 0,0 l/m 0 min 0 min 0 W/m 8,4 km/h (2 Bft) 93,62 %
18.05.2017 00:12 22,1 C 21,1 C 18,3 C 60 % 0 lf 1009,5 hPa 0,0 l/m 0 min 0 min 0 W/m 10,5 km/h (2 Bft) 95,74 %
18.05.2017 00:14 22,0 C 21,1 C 18,3 C 60 % 0 lf 1009,5 hPa 0,0 l/m 0 min 0 min 0 W/m 8,4 km/h (2 Bft) 97,87 %
18.05.2017 00:16 22,0 C 20,6 C 18,3 C 60 % 0 lf 1009,5 hPa 0,0 l/m 0 min 0 min 0 W/m 12,6 km/h (3 Bft) 97,62 %
18.05.2017 00:18 21,9 C 21,1 C 18,3 C 61 % 0 lf 1009,4 hPa 0,0 l/m 0 min 0 min 0 W/m 10,5 km/h (2 Bft) 93,62 %
18.05.2017 00:20 21,9 C 21,1 C 18,3 C 61 % 0 lf 1009,4 hPa 0,0 l/m 0 min 0 min 0 W/m 10,5 km/h (2 Bft) 98,04 %
18.05.2017 00:22 21,8 C 21,1 C 18,3 C 61 % 0 lf 1009,4 hPa 0,0 l/m 0 min 0 min 0 W/m 10,5 km/h (2 Bft) 95,74 %
18.05.2017 00:24 21,8 C 21,1 C 18,3 C 61 % 0 lf 1009,4 hPa 0,0 l/m 0 min 0 min 0 W/m 8,4 km/h (2 Bft) 95,74 %
18.05.2017 00:26 21,8 C 21,1 C 18,3 C 61 % 0 lf 1009,4 hPa 0,0 l/m 0 min 0 min 0 W/m 8,4 km/h (2 Bft) 97,87 %
18.05.2017 00:28 21,7 C 20,6 C 18,3 C 62 % 0 lf 1009,4 hPa 0,0 l/m 0 min 0 min 0 W/m 8,4 km/h (2 Bft) 95,74 %
18.05.2017 00:30 21,7 C 20,6 C 18,3 C 62 % 0 lf 1009,4 hPa 0,0 l/m 0 min 0 min 0 W/m 8,4 km/h (2 Bft) 97,83 %
18.05.2017 00:32 21,6 C 20,6 C 18,3 C 62 % 0 lf 1009,4 hPa 0,0 l/m 0 min 0 min 0 W/m 10,5 km/h (2 Bft) 97,14 %
18.05.2017 00:34 21,6 C 20,6 C 18,3 C 62 % 0 lf 1009,4 hPa 0,0 l/m 0 min 0 min 0 W/m 12,6 km/h (3 Bft) 97,87 %
18.05.2017 00:37 21,5 C 20,6 C 18,3 C 62 % 0 lf 1009,3 hPa 0,0 l/m 0 min 0 min 0 W/m 8,4 km/h (2 Bft) 96,34 %
18.05.2017 00:38 21,4 C 20,6 C 18,3 C 62 % 0 lf 1009,3 hPa 0,0 l/m 0 min 0 min 0 W/m 8,4 km/h (2 Bft) 100,00 %
18.05.2017 00:40 21,4 C 20,6 C 18,3 C 63 % 0 lf 1009,3 hPa 0,0 l/m 0 min 0 min 0 W/m 10,5 km/h (2 Bft) 97,87 %
18.05.2017 00:42 21,4 C 20,6 C 18,3 C 63 % 0 lf 1009,3 hPa 0,0 l/m 0 min 0 min 0 W/m 8,4 km/h (2 Bft) 97,87 %
18.05.2017 00:44 21,3 C 20,6 C 18,3 C 63 % 0 lf 1009,3 hPa 0,0 l/m 0 min 0 min 0 W/m 10,5 km/h (2 Bft) 97,83 %
18.05.2017 00:46 21,3 C 20,6 C 18,3 C 63 % 0 lf 1009,2 hPa 0,0 l/m 0 min 0 min 0 W/m 12,6 km/h (3 Bft) 95,74 %
18.05.2017 00:48 21,2 C 20,6 C 18,3 C 63 % 0 lf 1009,2 hPa 0,0 l/m 0 min 0 min 0 W/m 10,5 km/h (2 Bft) 97,87 %
18.05.2017 00:50 21,2 C 20,6 C 18,3 C 64 % 0 lf 1009,3 hPa 0,0 l/m 0 min 0 min 0 W/m 10,5 km/h (2 Bft) 96,61 %
18.05.2017 00:52 21,1 C 20,6 C 18,3 C 64 % 0 lf 1009,2 hPa 0,0 l/m 0 min 0 min 0 W/m 12,6 km/h (3 Bft) 97,56 %
18.05.2017 00:54 21,1 C 20,6 C 18,3 C 64 % 0 lf 1009,2 hPa 0,0 l/m 0 min 0 min 0 W/m 10,5 km/h (2 Bft) 97,87 %
18.05.2017 00:56 21,1 C 20,6 C 18,3 C 64 % 0 lf 1009,2 hPa 0,0 l/m 0 min 0 min 0 W/m 12,6 km/h (3 Bft) 95,74 %
18.05.2017 00:58 21,0 C 20,6 C 18,3 C 64 % 0 lf 1009,1 hPa 0,0 l/m 0 min 0 min 0 W/m 10,5 km/h (2 Bft) 95,74 %
18.05.2017 01:00 21,0 C 20,6 C 18,3 C 64 % 0 lf 1009,2 hPa 0,0 l/m 0 min 0 min 0 W/m 12,6 km/h (3 Bft) 93,48 %
18.05.2017 01:02 20,9 C 20,6 C 18,3 C 64 % 0 lf 1009,1 hPa 0,0 l/m 0 min 0 min 0 W/m 14,6 km/h (3 Bft) 95,74 %
18.05.2017 01:04 20,9 C 20,6 C 18,3 C 65 % 0 lf 1009,1 hPa 0,0 l/m 0 min 0 min 0 W/m 12,6 km/h (3 Bft) 95,74 %
18.05.2017 01:06 20,9 C 20,6 C 18,3 C 65 % 0 lf 1009,1 hPa 0,0 l/m 0 min 0 min 0 W/m 12,6 km/h (3 Bft) 97,87 %
18.05.2017 01:08 20,9 C 20,6 C 18,3 C 65 % 0 lf 1009,1 hPa 0,0 l/m 0 min 0 min 0 W/m 12,6 km/h (3 Bft) 91,49 %
18.05.2017 01:10 20,8 C 20,6 C 18,3 C 65 % 0 lf 1009,1 hPa 0,0 l/m 0 min 0 min 0 W/m 14,6 km/h (3 Bft) 95,74 %
18.05.2017 01:12 20,8 C 20,6 C 18,3 C 65 % 0 lf 1009,1 hPa 0,0 l/m 0 min 0 min 0 W/m 12,6 km/h (3 Bft) 97,87 %
18.05.2017 01:14 20,8 C 20,6 C 18,3 C 65 % 0 lf 1009,1 hPa 0,0 l/m 0 min 0 min 0 W/m 12,6 km/h (3 Bft) 97,87 %
18.05.2017 01:16 20,8 C 20,6 C 18,3 C 65 % 0 lf 1009,1 hPa 0,0 l/m 0 min 0 min 0 W/m 12,6 km/h (3 Bft) 95,74 %
18.05.2017 01:18 20,8 C 20,6 C 18,3 C 65 % 0 lf 1009,1 hPa 0,0 l/m 0 min 0 min 0 W/m 14,6 km/h (3 Bft) 95,74 %
18.05.2017 01:20 20,7 C 20,6 C 18,3 C 66 % 0 lf 1009,1 hPa 0,0 l/m 0 min 0 min 0 W/m 16,7 km/h (3 Bft) 98,04 %
18.05.2017 01:22 20,7 C 20,6 C 18,3 C 66 % 0 lf 1009,1 hPa 0,0 l/m 0 min 0 min 0 W/m 14,6 km/h (3 Bft) 95,24 %
18.05.2017 01:24 20,7 C 20,6 C 18,3 C 66 % 0 lf 1009,0 hPa 0,0 l/m 0 min 0 min 0 W/m 14,6 km/h (3 Bft) 95,65 %
18.05.2017 01:26 20,7 C 20,6 C 18,3 C 66 % 0 lf 1009,0 hPa 0,0 l/m 0 min 0 min 0 W/m 14,6 km/h (3 Bft) 91,49 %
18.05.2017 01:28 20,7 C 20,6 C 18,3 C 66 % 0 lf 1009,0 hPa 0,0 l/m 0 min 0 min 0 W/m 12,6 km/h (3 Bft) 95,74 %
18.05.2017 01:30 20,7 C 20,6 C 18,3 C 66 % 0 lf 1008,9 hPa 0,0 l/m 0 min 0 min 0 W/m 12,6 km/h (3 Bft) 97,87 %
18.05.2017 01:32 20,6 C 20,0 C 18,3 C 66 % 0 lf 1008,9 hPa 0,0 l/m 0 min 0 min 0 W/m 10,5 km/h (2 Bft) 97,87 %
18.05.2017 01:34 20,6 C 20,0 C 18,3 C 66 % 0 lf 1009,0 hPa 0,0 l/m 0 min 0 min 0 W/m 12,6 km/h (3 Bft) 93,62 %
18.05.2017 01:36 20,6 C 20,0 C 18,3 C 66 % 0 lf 1008,9 hPa 0,0 l/m 0 min 0 min 0 W/m 14,6 km/h (3 Bft) 95,65 %
18.05.2017 01:38 20,6 C 20,0 C 18,3 C 66 % 0 lf 1008,9 hPa 0,0 l/m 0 min 0 min 0 W/m 12,6 km/h (3 Bft) 95,74 %
18.05.2017 01:40 20,6 C 20,0 C 18,3 C 66 % 0 lf 1008,8 hPa 0,0 l/m 0 min 0 min 0 W/m 14,6 km/h (3 Bft) 93,62 %
18.05.2017 01:42 20,5 C 20,0 C 18,3 C 66 % 0 lf 1008,8 hPa 0,0 l/m 0 min 0 min 0 W/m 14,6 km/h (3 Bft) 92,00 %
18.05.2017 01:44 20,5 C 20,0 C 18,3 C 66 % 0 lf 1008,9 hPa 0,0 l/m 0 min 0 min 0 W/m 12,6 km/h (3 Bft) 93,62 %
18.05.2017 01:46 20,5 C 20,0 C 18,3 C 66 % 0 lf 1008,9 hPa 0,0 l/m 0 min 0 min 0 W/m 16,7 km/h (3 Bft) 91,30 %
18.05.2017 01:48 20,5 C 20,0 C 18,3 C 66 % 0 lf 1008,8 hPa 0,0 l/m 0 min 0 min 0 W/m 14,6 km/h (3 Bft) 93,62 %
18.05.2017 01:50 20,4 C 20,0 C 18,3 C 66 % 0 lf 1008,7 hPa 0,0 l/m 0 min 0 min 0 W/m 14,6 km/h (3 Bft) 95,74 %
18.05.2017 01:52 20,4 C 20,0 C 17,8 C 67 % 0 lf 1008,7 hPa 0,0 l/m 0 min 0 min 0 W/m 10,5 km/h (2 Bft) 95,83 %
18.05.2017 01:54 20,4 C 20,0 C 18,3 C 67 % 0 lf 1008,7 hPa 0,0 l/m 0 min 0 min 0 W/m 12,6 km/h (3 Bft) 93,62 %
18.05.2017 01:56 20,4 C 20,0 C 17,8 C 67 % 0 lf 1008,6 hPa 0,0 l/m 0 min 0 min 0 W/m 14,6 km/h (3 Bft) 95,74 %
18.05.2017 01:58 20,3 C 20,0 C 17,8 C 67 % 0 lf 1008,6 hPa 0,0 l/m 0 min 0 min 0 W/m 12,6 km/h (3 Bft) 93,48 %
18.05.2017 02:00 20,3 C 20,0 C 17,8 C 67 % 0 lf 1008,6 hPa 0,0 l/m 0 min 0 min 0 W/m 10,5 km/h (2 Bft) 95,74 %
18.05.2017 02:02 20,3 C 20,0 C 17,8 C 67 % 0 lf 1008,5 hPa 0,0 l/m 0 min 0 min 0 W/m 14,6 km/h (3 Bft) 93,62 %
18.05.2017 02:04 20,3 C 20,0 C 17,8 C 67 % 0 lf 1008,4 hPa 0,0 l/m 0 min 0 min 0 W/m 14,6 km/h (3 Bft) 95,74 %
18.05.2017 02:06 20,3 C 20,0 C 17,8 C 67 % 0 lf 1008,4 hPa 0,0 l/m 0 min 0 min 0 W/m 10,5 km/h (2 Bft) 95,74 %
18.05.2017 02:08 20,2 C 20,0 C 17,8 C 67 % 0 lf 1008,4 hPa 0,0 l/m 0 min 0 min 0 W/m 12,6 km/h (3 Bft) 95,74 %
18.05.2017 02:10 20,2 C 19,4 C 17,8 C 68 % 0 lf 1008,4 hPa 0,0 l/m 0 min 0 min 0 W/m 12,6 km/h (3 Bft) 95,65 %
18.05.2017 02:12 20,2 C 20,0 C 17,8 C 68 % 0 lf 1008,4 hPa 0,0 l/m 0 min 0 min 0 W/m 14,6 km/h (3 Bft) 95,74 %
18.05.2017 02:14 20,2 C 19,4 C 17,8 C 68 % 0 lf 1008,4 hPa 0,0 l/m 0 min 0 min 0 W/m 16,7 km/h (3 Bft) 97,87 %
18.05.2017 02:16 20,2 C 19,4 C 17,8 C 68 % 0 lf 1008,3 hPa 0,0 l/m 0 min 0 min 0 W/m 10,5 km/h (2 Bft) 93,62 %
18.05.2017 02:18 20,1 C 19,4 C 17,8 C 68 % 0 lf 1008,3 hPa 0,0 l/m 0 min 0 min 0 W/m 10,5 km/h (2 Bft) 95,74 %
18.05.2017 02:20 20,1 C 19,4 C 17,8 C 68 % 0 lf 1008,3 hPa 0,0 l/m 0 min 0 min 0 W/m 10,5 km/h (2 Bft) 97,87 %
18.05.2017 02:22 20,1 C 19,4 C 17,8 C 68 % 0 lf 1008,3 hPa 0,0 l/m 0 min 0 min 0 W/m 14,6 km/h (3 Bft) 93,62 %
18.05.2017 02:24 20,0 C 19,4 C 17,8 C 68 % 0 lf 1008,3 hPa 0,0 l/m 0 min 0 min 0 W/m 14,6 km/h (3 Bft) 95,74 %
18.05.2017 02:26 20,0 C 19,4 C 17,8 C 68 % 0 lf 1008,2 hPa 0,0 l/m 0 min 0 min 0 W/m 10,5 km/h (2 Bft) 95,74 %
18.05.2017 02:28 19,9 C 19,4 C 17,8 C 68 % 0 lf 1008,2 hPa 0,0 l/m 0 min 0 min 0 W/m 14,6 km/h (3 Bft) 97,87 %
18.05.2017 02:30 19,9 C 19,4 C 17,8 C 68 % 0 lf 1008,3 hPa 0,0 l/m 0 min 0 min 0 W/m 12,6 km/h (3 Bft) 97,87 %
18.05.2017 02:32 19,9 C 19,4 C 17,8 C 69 % 0 lf 1008,3 hPa 0,0 l/m 0 min 0 min 0 W/m 14,6 km/h (3 Bft) 93,48 %
18.05.2017 02:34 19,9 C 19,4 C 17,8 C 69 % 0 lf 1008,3 hPa 0,0 l/m 0 min 0 min 0 W/m 12,6 km/h (3 Bft) 95,74 %
18.05.2017 02:36 19,9 C 19,4 C 17,8 C 69 % 0 lf 1008,4 hPa 0,0 l/m 0 min 0 min 0 W/m 14,6 km/h (3 Bft) 95,74 %
18.05.2017 02:38 19,8 C 19,4 C 17,8 C 69 % 0 lf 1008,5 hPa 0,0 l/m 0 min 0 min 0 W/m 12,6 km/h (3 Bft) 95,74 %
18.05.2017 02:40 19,8 C 19,4 C 17,8 C 69 % 0 lf 1008,7 hPa 0,0 l/m 0 min 0 min 0 W/m 10,5 km/h (2 Bft) 95,74 %
18.05.2017 02:42 19,8 C 19,4 C 17,8 C 69 % 0 lf 1008,8 hPa 0,0 l/m 0 min 0 min 0 W/m 10,5 km/h (2 Bft) 95,74 %
18.05.2017 02:44 19,8 C 19,4 C 17,8 C 69 % 0 lf 1008,8 hPa 0,0 l/m 0 min 0 min 0 W/m 10,5 km/h (2 Bft) 97,87 %
18.05.2017 02:46 19,8 C 19,4 C 17,8 C 70 % 0 lf 1008,8 hPa 0,0 l/m 0 min 0 min 0 W/m 8,4 km/h (2 Bft) 97,87 %
18.05.2017 02:48 19,8 C 19,4 C 17,8 C 70 % 0 lf 1008,9 hPa 0,0 l/m 0 min 0 min 0 W/m 6,3 km/h (2 Bft) 97,87 %
18.05.2017 02:50 19,8 C 19,4 C 17,8 C 70 % 0 lf 1009,0 hPa 0,0 l/m 0 min 0 min 0 W/m 6,3 km/h (2 Bft) 95,65 %
18.05.2017 02:52 19,8 C 19,4 C 17,2 C 70 % 0 lf 1008,9 hPa 0,0 l/m 0 min 0 min 0 W/m 4,2 km/h (1 Bft) 93,62 %
18.05.2017 02:54 19,8 C 18,9 C 17,2 C 70 % 0 lf 1008,9 hPa 0,0 l/m 0 min 0 min 0 W/m 4,2 km/h (1 Bft) 97,87 %
18.05.2017 02:56 19,7 C 18,9 C 17,2 C 70 % 0 lf 1009,0 hPa 0,0 l/m 0 min 0 min 0 W/m 6,3 km/h (2 Bft) 95,74 %
18.05.2017 02:58 19,7 C 18,9 C 16,7 C 70 % 0 lf 1008,9 hPa 0,0 l/m 0 min 0 min 0 W/m 6,3 km/h (2 Bft) 95,74 %
18.05.2017 03:00 19,7 C 18,9 C 16,7 C 69 % 0 lf 1008,9 hPa 0,0 l/m 0 min 0 min 0 W/m 4,2 km/h (1 Bft) 97,87 %
18.05.2017 03:02 19,7 C 18,9 C 16,7 C 69 % 0 lf 1008,9 hPa 0,0 l/m 0 min 0 min 0 W/m 4,2 km/h (1 Bft) 97,83 %
18.05.2017 03:04 19,7 C 18,9 C 16,7 C 69 % 0 lf 1008,8 hPa 0,0 l/m 0 min 0 min 0 W/m 6,3 km/h (2 Bft) 100,00 %
18.05.2017 03:06 19,7 C 18,9 C 16,7 C 69 % 0 lf 1008,8 hPa 0,0 l/m 0 min 0 min 0 W/m 6,3 km/h (2 Bft) 97,87 %
18.05.2017 03:08 19,7 C 18,9 C 16,7 C 69 % 0 lf 1008,9 hPa 0,0 l/m 0 min 0 min 0 W/m 8,4 km/h (2 Bft) 95,74 %
18.05.2017 03:10 19,6 C 18,9 C 16,7 C 69 % 0 lf 1008,9 hPa 0,0 l/m 0 min 0 min 0 W/m 10,5 km/h (2 Bft) 100,00 %
18.05.2017 03:12 19,6 C 18,9 C 16,7 C 69 % 0 lf 1008,8 hPa 0,0 l/m 0 min 0 min 0 W/m 8,4 km/h (2 Bft) 97,87 %
18.05.2017 03:14 19,6 C 18,9 C 16,7 C 70 % 0 lf 1008,8 hPa 0,0 l/m 0 min 0 min 0 W/m 8,4 km/h (2 Bft) 100,00 %
18.05.2017 03:16 19,6 C 18,9 C 16,7 C 70 % 0 lf 1008,8 hPa 0,0 l/m 0 min 0 min 0 W/m 6,3 km/h (2 Bft) 97,87 %
18.05.2017 03:18 19,6 C 18,9 C 16,7 C 69 % 0 lf 1008,8 hPa 0,0 l/m 0 min 0 min 0 W/m 4,2 km/h (1 Bft) 97,87 %
18.05.2017 03:20 19,5 C 18,9 C 16,7 C 69 % 0 lf 1008,8 hPa 0,0 l/m 0 min 0 min 0 W/m 4,2 km/h (1 Bft) 100,00 %
18.05.2017 03:22 19,5 C 18,9 C 16,7 C 70 % 0 lf 1008,8 hPa 0,0 l/m 0 min 0 min 0 W/m 6,3 km/h (2 Bft) 97,87 %
18.05.2017 03:24 19,5 C 18,9 C 16,1 C 70 % 0 lf 1008,8 hPa 0,0 l/m 0 min 0 min 0 W/m 6,3 km/h (2 Bft) 97,87 %
18.05.2017 03:26 19,4 C 18,9 C 16,1 C 70 % 0 lf 1008,9 hPa 0,0 l/m 0 min 0 min 0 W/m 6,3 km/h (2 Bft) 97,83 %
18.05.2017 03:28 19,4 C 18,9 C 16,1 C 70 % 0 lf 1008,9 hPa 0,0 l/m 0 min 0 min 0 W/m 6,3 km/h (2 Bft) 100,00 %
18.05.2017 03:30 19,4 C 18,9 C 16,1 C 70 % 0 lf 1008,8 hPa 0,0 l/m 0 min 0 min 0 W/m 4,2 km/h (1 Bft) 97,87 %
18.05.2017 03:32 19,4 C 18,9 C 16,1 C 70 % 0 lf 1008,8 hPa 0,0 l/m 0 min 0 min 0 W/m 4,2 km/h (1 Bft) 100,00 %
18.05.2017 03:34 19,4 C 18,9 C 16,1 C 70 % 0 lf 1008,8 hPa 0,0 l/m 0 min 0 min 0 W/m 6,3 km/h (2 Bft) 97,87 %
18.05.2017 03:36 19,3 C 18,3 C 16,1 C 70 % 0 lf 1008,9 hPa 0,0 l/m 0 min 0 min 0 W/m 6,3 km/h (2 Bft) 100,00 %
18.05.2017 03:38 19,3 C 18,9 C 16,1 C 70 % 0 lf 1008,8 hPa 0,0 l/m 0 min 0 min 0 W/m 6,3 km/h (2 Bft) 100,00 %
18.05.2017 03:40 19,3 C 18,3 C 16,1 C 70 % 0 lf 1008,9 hPa 0,0 l/m 0 min 0 min 0 W/m 6,3 km/h (2 Bft) 97,87 %
18.05.2017 03:42 19,3 C 18,3 C 16,1 C 71 % 0 lf 1008,9 hPa 0,0 l/m 0 min 0 min 0 W/m 6,3 km/h (2 Bft) 94,34 %
18.05.2017 03:44 19,2 C 18,9 C 16,1 C 71 % 0 lf 1008,9 hPa 0,0 l/m 0 min 0 min 0 W/m 6,3 km/h (2 Bft) 97,83 %
18.05.2017 03:46 19,2 C 18,9 C 16,7 C 71 % 0 lf 1008,9 hPa 0,0 l/m 0 min 0 min 0 W/m 6,3 km/h (2 Bft) 93,62 %
18.05.2017 03:48 19,2 C 18,9 C 16,7 C 71 % 0 lf 1008,9 hPa 0,0 l/m 0 min 0 min 0 W/m 6,3 km/h (2 Bft) 91,49 %
18.05.2017 03:50 19,2 C 18,9 C 16,7 C 71 % 0 lf 1009,0 hPa 0,0 l/m 0 min 0 min 0 W/m 6,3 km/h (2 Bft) 95,74 %
18.05.2017 03:52 19,1 C 18,9 C 16,7 C 71 % 0 lf 1009,0 hPa 0,0 l/m 0 min 0 min 0 W/m 8,4 km/h (2 Bft) 95,83 %
18.05.2017 03:54 19,1 C 18,9 C 16,7 C 71 % 0 lf 1009,0 hPa 0,0 l/m 0 min 0 min 0 W/m 6,3 km/h (2 Bft) 95,74 %
18.05.2017 03:56 19,1 C 18,9 C 16,7 C 71 % 0 lf 1009,0 hPa 0,0 l/m 0 min 0 min 0 W/m 10,5 km/h (2 Bft) 95,65 %
18.05.2017 03:58 19,1 C 18,9 C 16,7 C 71 % 0 lf 1009,0 hPa 0,0 l/m 0 min 0 min 0 W/m 6,3 km/h (2 Bft) 95,74 %
18.05.2017 04:00 19,1 C 18,9 C 16,7 C 71 % 0 lf 1009,0 hPa 0,0 l/m 0 min 0 min 0 W/m 6,3 km/h (2 Bft) 89,36 %
18.05.2017 04:02 19,1 C 18,9 C 16,7 C 71 % 0 lf 1009,0 hPa 0,0 l/m 0 min 0 min 0 W/m 6,3 km/h (2 Bft) 95,65 %
18.05.2017 04:04 19,0 C 18,9 C 16,7 C 72 % 0 lf 1008,9 hPa 0,0 l/m 0 min 0 min 0 W/m 6,3 km/h (2 Bft) 93,62 %
18.05.2017 04:06 19,0 C 18,9 C 16,7 C 72 % 0 lf 1009,1 hPa 0,0 l/m 0 min 0 min 0 W/m 8,4 km/h (2 Bft) 93,48 %
18.05.2017 04:08 19,0 C 18,9 C 16,7 C 72 % 0 lf 1009,0 hPa 0,0 l/m 0 min 0 min 0 W/m 6,3 km/h (2 Bft) 95,74 %
18.05.2017 04:10 19,0 C 18,9 C 16,7 C 72 % 0 lf 1009,0 hPa 0,0 l/m 0 min 0 min 0 W/m 8,4 km/h (2 Bft) 95,74 %
18.05.2017 04:12 19,0 C 18,9 C 16,7 C 72 % 0 lf 1009,0 hPa 0,0 l/m 0 min 0 min 0 W/m 6,3 km/h (2 Bft) 91,67 %
18.05.2017 04:14 19,0 C 18,9 C 16,7 C 72 % 0 lf 1009,0 hPa 0,0 l/m 0 min 0 min 0 W/m 6,3 km/h (2 Bft) 97,87 %
18.05.2017 04:16 19,0 C 18,9 C 16,7 C 72 % 0 lf 1009,1 hPa 0,0 l/m 0 min 0 min 0 W/m 6,3 km/h (2 Bft) 97,83 %
18.05.2017 04:18 19,0 C 18,9 C 16,1 C 72 % 0 lf 1009,0 hPa 0,0 l/m 0 min 0 min 0 W/m 4,2 km/h (1 Bft) 95,74 %
18.05.2017 04:20 19,0 C 18,9 C 16,1 C 72 % 0 lf 1009,0 hPa 0,0 l/m 0 min 0 min 0 W/m 6,3 km/h (2 Bft) 93,62 %
18.05.2017 04:22 18,9 C 18,9 C 16,1 C 73 % 0 lf 1009,1 hPa 0,0 l/m 0 min 0 min 0 W/m 4,2 km/h (1 Bft) 95,74 %
18.05.2017 04:24 18,9 C 18,9 C 16,1 C 73 % 0 lf 1009,0 hPa 0,0 l/m 0 min 0 min 0 W/m 6,3 km/h (2 Bft) 95,74 %
18.05.2017 04:26 18,9 C 18,3 C 16,1 C 73 % 0 lf 1009,0 hPa 0,0 l/m 0 min 0 min 0 W/m 6,3 km/h (2 Bft) 87,23 %
18.05.2017 04:28 18,9 C 18,9 C 16,1 C 73 % 0 lf 1009,0 hPa 0,0 l/m 0 min 0 min 0 W/m 6,3 km/h (2 Bft) 95,74 %
18.05.2017 04:30 18,9 C 18,9 C 16,1 C 73 % 0 lf 1009,0 hPa 0,0 l/m 0 min 0 min 0 W/m 10,5 km/h (2 Bft) 93,48 %
18.05.2017 04:32 18,9 C 18,9 C 16,1 C 73 % 0 lf 1009,0 hPa 0,0 l/m 0 min 0 min 0 W/m 6,3 km/h (2 Bft) 91,67 %
18.05.2017 04:34 18,9 C 18,9 C 16,1 C 73 % 0 lf 1009,1 hPa 0,0 l/m 0 min 0 min 0 W/m 6,3 km/h (2 Bft) 95,74 %
18.05.2017 04:36 18,9 C 18,9 C 16,1 C 73 % 0 lf 1009,0 hPa 0,0 l/m 0 min 0 min 0 W/m 8,4 km/h (2 Bft) 97,87 %
18.05.2017 04:38 18,9 C 18,9 C 16,1 C 73 % 0 lf 1009,1 hPa 0,0 l/m 0 min 0 min 0 W/m 6,3 km/h (2 Bft) 95,74 %
18.05.2017 04:40 18,9 C 18,9 C 16,1 C 74 % 0 lf 1009,1 hPa 0,0 l/m 0 min 0 min 0 W/m 6,3 km/h (2 Bft) 93,48 %
18.05.2017 04:42 18,9 C 18,9 C 16,7 C 74 % 0 lf 1009,1 hPa 0,0 l/m 0 min 0 min 0 W/m 10,5 km/h (2 Bft) 93,62 %
18.05.2017 04:44 18,9 C 18,9 C 16,7 C 74 % 0 lf 1009,1 hPa 0,0 l/m 0 min 0 min 0 W/m 10,5 km/h (2 Bft) 91,49 %
18.05.2017 04:46 18,9 C 18,9 C 16,7 C 74 % 0 lf 1009,1 hPa 0,0 l/m 0 min 0 min 0 W/m 6,3 km/h (2 Bft) 95,74 %
18.05.2017 04:48 18,9 C 18,9 C 16,7 C 75 % 0 lf 1009,1 hPa 0,0 l/m 0 min 0 min 0 W/m 8,4 km/h (2 Bft) 95,74 %
18.05.2017 04:50 18,9 C 18,9 C 16,7 C 75 % 0 lf 1009,1 hPa 0,0 l/m 0 min 0 min 0 W/m 10,5 km/h (2 Bft) 93,62 %
18.05.2017 04:52 18,9 C 18,9 C 16,7 C 75 % 0 lf 1009,1 hPa 0,0 l/m 0 min 0 min 0 W/m 8,4 km/h (2 Bft) 95,65 %
18.05.2017 04:54 18,9 C 18,9 C 17,2 C 75 % 0 lf 1009,1 hPa 0,0 l/m 0 min 0 min 0 W/m 12,6 km/h (3 Bft) 97,87 %
18.05.2017 04:56 18,9 C 18,9 C 17,2 C 75 % 0 lf 1009,1 hPa 0,0 l/m 0 min 0 min 0 W/m 12,6 km/h (3 Bft) 93,62 %
18.05.2017 04:58 18,9 C 18,9 C 17,2 C 76 % 0 lf 1009,2 hPa 0,0 l/m 0 min 0 min 0 W/m 10,5 km/h (2 Bft) 95,74 %
18.05.2017 05:00 18,9 C 18,9 C 17,2 C 76 % 0 lf 1009,1 hPa 0,0 l/m 0 min 0 min 0 W/m 12,6 km/h (3 Bft) 91,49 %
18.05.2017 05:02 19,0 C 19,4 C 17,2 C 76 % 0 lf 1009,1 hPa 0,0 l/m 0 min 0 min 0 W/m 10,5 km/h (2 Bft) 100,00 %
18.05.2017 05:04 19,0 C 19,4 C 17,2 C 76 % 0 lf 1009,1 hPa 0,0 l/m 0 min 0 min 0 W/m 10,5 km/h (2 Bft) 93,62 %
18.05.2017 05:06 19,0 C 19,4 C 17,2 C 76 % 0 lf 1009,2 hPa 0,0 l/m 0 min 0 min 0 W/m 8,4 km/h (2 Bft) 94,92 %
18.05.2017 05:08 19,1 C 19,4 C 17,2 C 76 % 0 lf 1009,2 hPa 0,0 l/m 0 min 0 min 0 W/m 6,3 km/h (2 Bft) 88,57 %
18.05.2017 05:10 19,1 C 18,9 C 17,2 C 77 % 0 lf 1009,3 hPa 0,0 l/m 0 min 0 min 0 W/m 8,4 km/h (2 Bft) 95,74 %
18.05.2017 05:12 19,1 C 18,9 C 17,2 C 77 % 0 lf 1009,3 hPa 0,0 l/m 0 min 0 min 0 W/m 6,3 km/h (2 Bft) 97,87 %
18.05.2017 05:14 19,1 C 18,9 C 17,2 C 77 % 0 lf 1009,3 hPa 0,0 l/m 0 min 0 min 0 W/m 8,4 km/h (2 Bft) 97,83 %
18.05.2017 05:16 19,1 C 18,9 C 17,2 C 77 % 0 lf 1009,3 hPa 0,0 l/m 0 min 0 min 0 W/m 8,4 km/h (2 Bft) 97,87 %
18.05.2017 05:18 19,1 C 18,9 C 17,2 C 77 % 0 lf 1009,3 hPa 0,0 l/m 0 min 0 min 0 W/m 12,6 km/h (3 Bft) 95,74 %
18.05.2017 05:20 19,1 C 18,9 C 17,2 C 77 % 0 lf 1009,2 hPa 0,0 l/m 0 min 0 min 0 W/m 6,3 km/h (2 Bft) 96,61 %
18.05.2017 05:22 19,1 C 18,9 C 17,2 C 77 % 0 lf 1009,2 hPa 0,0 l/m 0 min 0 min 0 W/m 8,4 km/h (2 Bft) 94,29 %
18.05.2017 05:24 19,1 C 18,9 C 17,2 C 77 % 0 lf 1009,2 hPa 0,0 l/m 0 min 0 min 0 W/m 8,4 km/h (2 Bft) 97,87 %
18.05.2017 05:25 19,1 C 18,9 C 17,2 C 77 % 0 lf 1009,2 hPa 0,0 l/m 0 min 0 min 0 W/m 8,4 km/h (2 Bft) 99,12 %
18.05.2017 05:28 19,1 C 18,9 C 17,2 C 77 % 0 lf 1009,2 hPa 0,0 l/m 0 min 0 min 0 W/m 6,3 km/h (2 Bft) 91,67 %
18.05.2017 05:30 19,1 C 18,9 C 17,2 C 77 % 0 lf 1009,2 hPa 0,0 l/m 0 min 0 min 0 W/m 6,3 km/h (2 Bft) 97,87 %
18.05.2017 05:32 19,2 C 18,9 C 17,2 C 77 % 0 lf 1009,2 hPa 0,0 l/m 0 min 0 min 0 W/m 6,3 km/h (2 Bft) 93,62 %
18.05.2017 05:34 19,2 C 18,9 C 17,2 C 77 % 0 lf 1009,3 hPa 0,0 l/m 0 min 0 min 0 W/m 8,4 km/h (2 Bft) 95,74 %
18.05.2017 05:36 19,2 C 18,9 C 17,2 C 77 % 0 lf 1009,2 hPa 0,0 l/m 0 min 0 min 0 W/m 8,4 km/h (2 Bft) 95,74 %
18.05.2017 05:38 19,2 C 18,9 C 17,2 C 78 % 0 lf 1009,1 hPa 0,0 l/m 0 min 0 min 0 W/m 8,4 km/h (2 Bft) 93,48 %
18.05.2017 05:40 19,2 C 18,9 C 17,2 C 78 % 0 lf 1009,2 hPa 0,0 l/m 0 min 0 min 2 W/m 10,5 km/h (2 Bft) 95,74 %
18.05.2017 05:42 19,2 C 18,9 C 17,2 C 78 % 0 lf 1009,2 hPa 0,0 l/m 0 min 0 min 5 W/m 8,4 km/h (2 Bft) 95,74 %
18.05.2017 05:44 19,2 C 18,9 C 17,2 C 78 % 0 lf 1009,2 hPa 0,0 l/m 0 min 0 min 5 W/m 12,6 km/h (3 Bft) 95,65 %
18.05.2017 05:46 19,2 C 18,9 C 17,2 C 78 % 0 lf 1009,0 hPa 0,0 l/m 0 min 0 min 6 W/m 12,6 km/h (3 Bft) 91,49 %
18.05.2017 05:48 19,2 C 18,9 C 17,2 C 78 % 0 lf 1009,0 hPa 0,0 l/m 0 min 0 min 7 W/m 18,8 km/h (3 Bft) 93,48 %
18.05.2017 05:50 19,2 C 18,9 C 17,2 C 79 % 0 lf 1009,1 hPa 0,0 l/m 0 min 0 min 7 W/m 8,4 km/h (2 Bft) 96,23 %
18.05.2017 05:52 19,2 C 19,4 C 17,2 C 79 % 0 lf 1009,1 hPa 0,0 l/m 0 min 0 min 9 W/m 10,5 km/h (2 Bft) 97,56 %
18.05.2017 05:54 19,2 C 18,9 C 17,2 C 79 % 0 lf 1009,1 hPa 0,0 l/m 0 min 0 min 10 W/m 10,5 km/h (2 Bft) 93,62 %
18.05.2017 05:56 19,2 C 19,4 C 17,2 C 79 % 0 lf 1009,1 hPa 0,0 l/m 0 min 0 min 11 W/m 14,6 km/h (3 Bft) 97,87 %
18.05.2017 05:58 19,2 C 19,4 C 17,8 C 79 % 0 lf 1009,0 hPa 0,0 l/m 0 min 0 min 12 W/m 8,4 km/h (2 Bft) 97,87 %
18.05.2017 06:00 19,2 C 19,4 C 17,2 C 79 % 0 lf 1009,1 hPa 0,0 l/m 0 min 0 min 14 W/m 10,5 km/h (2 Bft) 97,83 %
18.05.2017 06:02 19,2 C 19,4 C 17,2 C 79 % 0 lf 1009,0 hPa 0,0 l/m 0 min 0 min 16 W/m 8,4 km/h (2 Bft) 96,36 %
18.05.2017 06:04 19,2 C 18,9 C 17,2 C 79 % 0 lf 1009,0 hPa 0,0 l/m 0 min 0 min 16 W/m 10,5 km/h (2 Bft) 93,62 %
18.05.2017 06:06 19,2 C 19,4 C 17,2 C 79 % 0 lf 1009,1 hPa 0,0 l/m 0 min 0 min 19 W/m 8,4 km/h (2 Bft) 98,00 %
18.05.2017 06:10 19,2 C 19,4 C 17,8 C 79 % 0 lf 1009,1 hPa 0,0 l/m 0 min 0 min 22 W/m 12,6 km/h (3 Bft) 95,74 %
18.05.2017 06:12 19,2 C 19,4 C 17,8 C 79 % 0 lf 1009,1 hPa 0,0 l/m 0 min 0 min 23 W/m 10,5 km/h (2 Bft) 97,87 %
18.05.2017 06:14 19,2 C 19,4 C 17,8 C 79 % 0 lf 1009,1 hPa 0,0 l/m 0 min 0 min 20 W/m 8,4 km/h (2 Bft) 100,00 %
18.05.2017 06:16 19,2 C 19,4 C 17,8 C 80 % 0 lf 1009,2 hPa 0,0 l/m 0 min 0 min 16 W/m 8,4 km/h (2 Bft) 100,00 %
18.05.2017 06:18 19,2 C 19,4 C 17,8 C 79 % 0 lf 1009,3 hPa 0,0 l/m 0 min 0 min 15 W/m 10,5 km/h (2 Bft) 97,83 %
18.05.2017 06:20 19,3 C 19,4 C 17,8 C 80 % 0 lf 1009,3 hPa 0,0 l/m 0 min 0 min 13 W/m 10,5 km/h (2 Bft) 100,00 %
18.05.2017 06:22 19,3 C 19,4 C 17,8 C 80 % 0 lf 1009,4 hPa 0,0 l/m 0 min 2 min 12 W/m 12,6 km/h (3 Bft) 100,00 %
18.05.2017 06:24 19,3 C 19,4 C 17,8 C 80 % 0 lf 1009,4 hPa 0,0 l/m 0 min 0 min 9 W/m 10,5 km/h (2 Bft) 97,87 %
18.05.2017 06:26 19,3 C 18,9 C 17,2 C 80 % 15 lf 1009,4 hPa 0,0 l/m 0 min 2 min 7 W/m 8,4 km/h (2 Bft) 97,87 %
18.05.2017 06:28 19,3 C 18,3 C 17,2 C 80 % 15 lf 1009,5 hPa 0,0 l/m 0 min 2 min 7 W/m 8,4 km/h (2 Bft) 100,00 %
18.05.2017 06:30 19,3 C 18,3 C 16,7 C 80 % 15 lf 1009,5 hPa 0,0 l/m 0 min 2 min 7 W/m 6,3 km/h (2 Bft) 100,00 %
18.05.2017 06:32 19,3 C 18,3 C 16,1 C 81 % 15 lf 1009,5 hPa 0,0 l/m 0 min 2 min 7 W/m 10,5 km/h (2 Bft) 100,00 %
18.05.2017 06:34 19,3 C 18,3 C 16,1 C 81 % 15 lf 1009,5 hPa 0,0 l/m 0 min 2 min 7 W/m 10,5 km/h (2 Bft) 97,87 %
18.05.2017 06:36 19,3 C 17,8 C 16,1 C 81 % 14 lf 1009,5 hPa 0,0 l/m 0 min 2 min 7 W/m 8,4 km/h (2 Bft) 100,00 %
18.05.2017 06:38 19,2 C 17,8 C 16,1 C 81 % 15 lf 1009,5 hPa 0,0 l/m 0 min 2 min 7 W/m 8,4 km/h (2 Bft) 97,87 %
18.05.2017 06:40 19,2 C 17,2 C 15,6 C 82 % 15 lf 1009,5 hPa 0,0 l/m 0 min 2 min 7 W/m 10,5 km/h (2 Bft) 100,00 %
18.05.2017 06:42 19,2 C 17,2 C 15,6 C 82 % 15 lf 1009,6 hPa 0,2 l/m 0 min 2 min 7 W/m 10,5 km/h (2 Bft) 100,00 %
18.05.2017 06:44 19,2 C 17,2 C 15,6 C 82 % 15 lf 1009,5 hPa 0,0 l/m 0 min 2 min 7 W/m 10,5 km/h (2 Bft) 100,00 %
18.05.2017 06:46 19,2 C 16,7 C 15,6 C 83 % 15 lf 1009,6 hPa 0,0 l/m 0 min 2 min 7 W/m 14,6 km/h (3 Bft) 95,65 %
18.05.2017 06:48 19,2 C 16,7 C 15,6 C 83 % 15 lf 1009,6 hPa 0,0 l/m 0 min 2 min 10 W/m 16,7 km/h (3 Bft) 100,00 %
18.05.2017 06:50 19,1 C 16,7 C 15,6 C 84 % 15 lf 1009,5 hPa 0,0 l/m 0 min 2 min 11 W/m 12,6 km/h (3 Bft) 100,00 %
18.05.2017 06:52 19,1 C 16,7 C 15,6 C 84 % 15 lf 1009,5 hPa 0,0 l/m 0 min 0 min 13 W/m 8,4 km/h (2 Bft) 100,00 %
18.05.2017 06:54 19,1 C 17,2 C 15,6 C 84 % 15 lf 1009,7 hPa 0,0 l/m 0 min 2 min 14 W/m 10,5 km/h (2 Bft) 100,00 %
18.05.2017 06:56 19,0 C 16,7 C 15,6 C 84 % 15 lf 1009,6 hPa 0,0 l/m 0 min 2 min 14 W/m 10,5 km/h (2 Bft) 97,87 %
18.05.2017 06:58 19,0 C 16,7 C 15,6 C 85 % 15 lf 1009,7 hPa 0,0 l/m 0 min 2 min 14 W/m 14,6 km/h (3 Bft) 100,00 %
18.05.2017 07:00 18,9 C 16,7 C 15,6 C 85 % 15 lf 1009,7 hPa 0,2 l/m 0 min 2 min 12 W/m 10,5 km/h (2 Bft) 100,00 %
18.05.2017 07:02 18,9 C 16,7 C 15,6 C 85 % 15 lf 1009,7 hPa 0,0 l/m 0 min 2 min 12 W/m 8,4 km/h (2 Bft) 95,74 %
18.05.2017 07:04 18,8 C 16,7 C 15,6 C 86 % 15 lf 1009,7 hPa 0,2 l/m 0 min 2 min 13 W/m 6,3 km/h (2 Bft) 100,00 %
18.05.2017 07:06 18,8 C 16,7 C 15,6 C 86 % 15 lf 1009,8 hPa 0,0 l/m 0 min 2 min 14 W/m 10,5 km/h (2 Bft) 97,87 %
18.05.2017 07:08 18,8 C 16,7 C 15,6 C 86 % 15 lf 1009,8 hPa 0,0 l/m 0 min 2 min 16 W/m 6,3 km/h (2 Bft) 97,87 %
18.05.2017 07:10 18,8 C 16,7 C 15,6 C 86 % 15 lf 1009,7 hPa 0,2 l/m 0 min 2 min 18 W/m 6,3 km/h (2 Bft) 100,00 %
18.05.2017 07:12 18,7 C 16,7 C 15,6 C 86 % 15 lf 1009,7 hPa 0,0 l/m 0 min 2 min 21 W/m 4,2 km/h (1 Bft) 97,87 %
18.05.2017 07:14 18,7 C 16,7 C 15,6 C 87 % 15 lf 1009,9 hPa 0,0 l/m 0 min 2 min 25 W/m 6,3 km/h (2 Bft) 100,00 %
18.05.2017 07:16 18,7 C 16,7 C 15,6 C 87 % 15 lf 1009,9 hPa 0,0 l/m 0 min 2 min 28 W/m 6,3 km/h (2 Bft) 97,87 %
18.05.2017 07:18 18,7 C 16,7 C 15,6 C 87 % 15 lf 1010,0 hPa 0,0 l/m 0 min 0 min 30 W/m 12,6 km/h (3 Bft) 95,74 %
18.05.2017 07:20 18,6 C 16,7 C 16,1 C 87 % 15 lf 1010,0 hPa 0,0 l/m 0 min 0 min 32 W/m 10,5 km/h (2 Bft) 100,00 %
18.05.2017 07:22 18,6 C 16,7 C 15,6 C 88 % 15 lf 1010,1 hPa 0,0 l/m 0 min 0 min 32 W/m 8,4 km/h (2 Bft) 96,43 %
18.05.2017 07:24 18,6 C 16,7 C 15,6 C 88 % 15 lf 1010,1 hPa 0,0 l/m 0 min 0 min 32 W/m 8,4 km/h (2 Bft) 93,62 %
18.05.2017 07:26 18,5 C 16,7 C 15,6 C 88 % 15 lf 1010,2 hPa 0,0 l/m 0 min 0 min 35 W/m 8,4 km/h (2 Bft) 97,87 %
18.05.2017 07:28 18,4 C 16,7 C 15,6 C 88 % 15 lf 1010,2 hPa 0,0 l/m 0 min 0 min 33 W/m 8,4 km/h (2 Bft) 93,48 %
18.05.2017 07:30 18,4 C 16,7 C 15,6 C 89 % 15 lf 1010,3 hPa 0,0 l/m 0 min 0 min 34 W/m 8,4 km/h (2 Bft) 95,74 %
18.05.2017 07:32 18,4 C 16,7 C 15,6 C 89 % 15 lf 1010,2 hPa 0,0 l/m 0 min 0 min 40 W/m 6,3 km/h (2 Bft) 95,74 %
18.05.2017 07:34 18,3 C 16,7 C 16,1 C 89 % 15 lf 1010,2 hPa 0,0 l/m 0 min 0 min 45 W/m 4,2 km/h (1 Bft) 93,62 %
18.05.2017 07:36 18,3 C 17,2 C 16,1 C 89 % 15 lf 1010,2 hPa 0,0 l/m 0 min 0 min 46 W/m 6,3 km/h (2 Bft) 95,74 %
18.05.2017 07:38 18,3 C 17,2 C 16,1 C 89 % 15 lf 1010,3 hPa 0,0 l/m 0 min 0 min 39 W/m 6,3 km/h (2 Bft) 93,62 %
18.05.2017 07:40 18,3 C 17,2 C 16,1 C 90 % 15 lf 1010,3 hPa 0,0 l/m 0 min 0 min 37 W/m 6,3 km/h (2 Bft) 91,30 %
18.05.2017 07:42 18,3 C 17,2 C 16,1 C 90 % 15 lf 1010,3 hPa 0,0 l/m 0 min 0 min 45 W/m 6,3 km/h (2 Bft) 91,49 %
18.05.2017 07:44 18,2 C 17,2 C 16,1 C 90 % 15 lf 1010,3 hPa 0,0 l/m 0 min 0 min 47 W/m 8,4 km/h (2 Bft) 93,62 %
18.05.2017 07:46 18,2 C 17,2 C 16,1 C 90 % 15 lf 1010,3 hPa 0,0 l/m 0 min 0 min 41 W/m 6,3 km/h (2 Bft) 91,49 %
18.05.2017 07:48 18,2 C 17,2 C 16,1 C 90 % 15 lf 1010,3 hPa 0,0 l/m 0 min 2 min 41 W/m 8,4 km/h (2 Bft) 89,36 %
18.05.2017 07:50 18,2 C 17,2 C 16,1 C 90 % 15 lf 1010,4 hPa 0,0 l/m 0 min 0 min 39 W/m 8,4 km/h (2 Bft) 91,49 %
18.05.2017 07:52 18,2 C 17,2 C 16,1 C 90 % 15 lf 1010,4 hPa 0,0 l/m 0 min 0 min 34 W/m 6,3 km/h (2 Bft) 89,13 %
18.05.2017 07:54 18,2 C 17,2 C 16,1 C 90 % 15 lf 1010,4 hPa 0,0 l/m 0 min 0 min 37 W/m 6,3 km/h (2 Bft) 89,36 %
18.05.2017 07:56 18,2 C 17,2 C 16,7 C 90 % 15 lf 1010,4 hPa 0,0 l/m 0 min 0 min 44 W/m 4,2 km/h (1 Bft) 91,49 %
18.05.2017 07:58 18,2 C 17,2 C 16,7 C 91 % 15 lf 1010,4 hPa 0,0 l/m 0 min 0 min 39 W/m 6,3 km/h (2 Bft) 91,49 %
18.05.2017 08:00 18,2 C 17,2 C 16,1 C 91 % 15 lf 1010,5 hPa 0,0 l/m 0 min 0 min 36 W/m 6,3 km/h (2 Bft) 91,49 %
18.05.2017 08:02 18,2 C 17,2 C 16,1 C 91 % 15 lf 1010,5 hPa 0,0 l/m 0 min 0 min 45 W/m 4,2 km/h (1 Bft) 91,49 %
18.05.2017 08:04 18,2 C 17,2 C 16,1 C 91 % 15 lf 1010,4 hPa 0,0 l/m 0 min 0 min 64 W/m 6,3 km/h (2 Bft) 91,30 %
18.05.2017 08:06 18,2 C 17,2 C 16,7 C 91 % 15 lf 1010,4 hPa 0,0 l/m 0 min 0 min 53 W/m 6,3 km/h (2 Bft) 92,11 %
18.05.2017 08:08 18,2 C 17,8 C 16,1 C 91 % 15 lf 1010,4 hPa 0,0 l/m 0 min 0 min 37 W/m 6,3 km/h (2 Bft) 93,62 %
18.05.2017 08:10 18,2 C 17,8 C 16,1 C 91 % 15 lf 1010,5 hPa 0,0 l/m 0 min 0 min 29 W/m 8,4 km/h (2 Bft) 93,62 %
18.05.2017 08:12 18,2 C 17,2 C 16,1 C 92 % 15 lf 1010,6 hPa 0,0 l/m 0 min 0 min 18 W/m 10,5 km/h (2 Bft) 95,74 %
18.05.2017 08:14 18,2 C 17,2 C 16,1 C 92 % 15 lf 1010,6 hPa 0,0 l/m 0 min 0 min 14 W/m 16,7 km/h (3 Bft) 93,62 %
18.05.2017 08:16 18,1 C 17,2 C 16,1 C 92 % 15 lf 1010,7 hPa 0,0 l/m 0 min 0 min 16 W/m 14,6 km/h (3 Bft) 95,65 %
18.05.2017 08:18 18,1 C 16,7 C 15,6 C 92 % 15 lf 1010,6 hPa 0,0 l/m 0 min 0 min 24 W/m 14,6 km/h (3 Bft) 93,48 %
18.05.2017 08:20 18,1 C 16,7 C 15,6 C 91 % 15 lf 1010,7 hPa 0,0 l/m 0 min 0 min 41 W/m 16,7 km/h (3 Bft) 95,74 %
18.05.2017 08:22 17,9 C 16,7 C 15,6 C 91 % 15 lf 1010,7 hPa 0,0 l/m 0 min 0 min 48 W/m 14,6 km/h (3 Bft) 93,62 %
18.05.2017 08:24 17,9 C 16,7 C 15,6 C 91 % 15 lf 1010,8 hPa 0,0 l/m 0 min 0 min 34 W/m 14,6 km/h (3 Bft) 95,74 %
18.05.2017 08:26 17,9 C 16,7 C 15,6 C 91 % 15 lf 1010,8 hPa 0,0 l/m 0 min 2 min 23 W/m 12,6 km/h (3 Bft) 95,74 %
18.05.2017 08:28 17,8 C 16,7 C 15,6 C 91 % 15 lf 1010,9 hPa 0,0 l/m 0 min 2 min 19 W/m 10,5 km/h (2 Bft) 95,74 %
18.05.2017 08:30 17,8 C 16,7 C 15,6 C 91 % 15 lf 1010,9 hPa 0,0 l/m 0 min 2 min 22 W/m 8,4 km/h (2 Bft) 95,65 %
18.05.2017 08:32 17,7 C 16,7 C 15,6 C 91 % 15 lf 1010,8 hPa 0,0 l/m 0 min 2 min 26 W/m 10,5 km/h (2 Bft) 95,83 %
18.05.2017 08:34 17,7 C 16,7 C 15,6 C 91 % 15 lf 1010,8 hPa 0,0 l/m 0 min 2 min 39 W/m 10,5 km/h (2 Bft) 95,74 %
18.05.2017 08:36 17,7 C 16,7 C 15,6 C 91 % 15 lf 1010,7 hPa 0,0 l/m 0 min 0 min 51 W/m 8,4 km/h (2 Bft) 93,48 %
18.05.2017 08:38 17,7 C 16,7 C 15,6 C 91 % 15 lf 1010,7 hPa 0,0 l/m 0 min 2 min 56 W/m 6,3 km/h (2 Bft) 100,00 %
18.05.2017 08:40 17,6 C 16,7 C 15,6 C 91 % 15 lf 1010,7 hPa 0,0 l/m 0 min 2 min 55 W/m 6,3 km/h (2 Bft) 97,87 %
18.05.2017 08:42 17,6 C 16,7 C 15,6 C 91 % 15 lf 1010,8 hPa 0,0 l/m 0 min 2 min 48 W/m 4,2 km/h (1 Bft) 97,83 %
18.05.2017 08:44 17,6 C 16,7 C 15,6 C 91 % 15 lf 1011,0 hPa 0,0 l/m 0 min 2 min 43 W/m 12,6 km/h (3 Bft) 95,74 %
18.05.2017 08:46 17,6 C 16,7 C 15,6 C 91 % 15 lf 1010,9 hPa 0,0 l/m 0 min 2 min 58 W/m 8,4 km/h (2 Bft) 97,87 %
18.05.2017 08:48 17,6 C 16,7 C 15,6 C 91 % 15 lf 1010,9 hPa 0,2 l/m 0 min 2 min 72 W/m 8,4 km/h (2 Bft) 95,74 %
18.05.2017 08:50 17,6 C 16,7 C 15,6 C 91 % 15 lf 1010,9 hPa 0,0 l/m 0 min 2 min 76 W/m 8,4 km/h (2 Bft) 97,87 %
18.05.2017 08:52 17,5 C 16,7 C 15,6 C 91 % 15 lf 1010,9 hPa 0,0 l/m 0 min 2 min 78 W/m 10,5 km/h (2 Bft) 97,83 %
18.05.2017 08:54 17,5 C 16,7 C 15,6 C 91 % 15 lf 1010,8 hPa 0,0 l/m 0 min 0 min 82 W/m 10,5 km/h (2 Bft) 100,00 %
18.05.2017 08:56 17,4 C 16,7 C 15,0 C 91 % 15 lf 1010,9 hPa 0,0 l/m 0 min 2 min 92 W/m 6,3 km/h (2 Bft) 97,87 %
18.05.2017 08:58 17,4 C 16,7 C 15,6 C 91 % 15 lf 1011,0 hPa 0,0 l/m 0 min 2 min 108 W/m 6,3 km/h (2 Bft) 100,00 %
18.05.2017 09:00 17,3 C 16,7 C 15,6 C 91 % 15 lf 1011,1 hPa 0,0 l/m 0 min 2 min 115 W/m 6,3 km/h (2 Bft) 97,87 %
18.05.2017 09:02 17,3 C 16,7 C 15,6 C 91 % 15 lf 1011,1 hPa 0,0 l/m 0 min 2 min 120 W/m 8,4 km/h (2 Bft) 97,92 %
18.05.2017 09:04 17,3 C 16,7 C 15,6 C 91 % 15 lf 1011,1 hPa 0,0 l/m 0 min 2 min 121 W/m 8,4 km/h (2 Bft) 100,00 %
18.05.2017 09:06 17,3 C 17,2 C 15,6 C 91 % 15 lf 1011,1 hPa 0,0 l/m 0 min 2 min 117 W/m 8,4 km/h (2 Bft) 100,00 %
18.05.2017 09:08 17,3 C 16,7 C 15,6 C 91 % 15 lf 1011,1 hPa 0,0 l/m 0 min 0 min 113 W/m 4,2 km/h (1 Bft) 100,00 %
18.05.2017 09:10 17,3 C 17,2 C 15,6 C 91 % 15 lf 1011,0 hPa 0,0 l/m 0 min 2 min 108 W/m 8,4 km/h (2 Bft) 97,87 %
18.05.2017 09:12 17,3 C 16,7 C 15,6 C 91 % 15 lf 1011,0 hPa 0,0 l/m 0 min 2 min 103 W/m 8,4 km/h (2 Bft) 100,00 %
18.05.2017 09:14 17,3 C 16,7 C 15,6 C 91 % 15 lf 1010,9 hPa 0,0 l/m 0 min 2 min 120 W/m 12,6 km/h (3 Bft) 97,87 %
18.05.2017 09:16 17,2 C 17,2 C 15,6 C 91 % 15 lf 1010,9 hPa 0,0 l/m 0 min 2 min 130 W/m 14,6 km/h (3 Bft) 97,83 %
18.05.2017 09:18 17,2 C 17,2 C 15,6 C 91 % 15 lf 1010,9 hPa 0,0 l/m 0 min 2 min 136 W/m 14,6 km/h (3 Bft) 97,87 %
18.05.2017 09:20 17,2 C 17,2 C 15,0 C 91 % 15 lf 1010,9 hPa 0,0 l/m 0 min 2 min 141 W/m 8,4 km/h (2 Bft) 100,00 %
18.05.2017 09:22 17,2 C 17,2 C 15,6 C 91 % 15 lf 1010,9 hPa 0,0 l/m 0 min 2 min 144 W/m 6,3 km/h (2 Bft) 97,87 %
18.05.2017 09:24 17,1 C 17,2 C 15,6 C 91 % 15 lf 1011,1 hPa 0,0 l/m 0 min 2 min 139 W/m 10,5 km/h (2 Bft) 100,00 %
18.05.2017 09:26 17,1 C 17,2 C 15,6 C 91 % 15 lf 1011,2 hPa 0,0 l/m 0 min 2 min 148 W/m 14,6 km/h (3 Bft) 97,87 %
18.05.2017 09:28 17,1 C 17,2 C 15,6 C 91 % 15 lf 1011,2 hPa 0,0 l/m 0 min 0 min 154 W/m 8,4 km/h (2 Bft) 100,00 %
18.05.2017 09:30 17,1 C 17,2 C 16,1 C 91 % 15 lf 1011,4 hPa 0,0 l/m 0 min 2 min 117 W/m 10,5 km/h (2 Bft) 97,87 %
18.05.2017 09:32 17,1 C 17,2 C 15,6 C 91 % 15 lf 1011,4 hPa 0,0 l/m 0 min 2 min 102 W/m 10,5 km/h (2 Bft) 97,92 %
18.05.2017 09:34 17,2 C 17,2 C 15,6 C 91 % 15 lf 1011,4 hPa 0,0 l/m 0 min 2 min 98 W/m 8,4 km/h (2 Bft) 95,74 %
18.05.2017 09:36 17,2 C 17,2 C 16,1 C 91 % 15 lf 1011,5 hPa 0,0 l/m 0 min 2 min 102 W/m 2,1 km/h (1 Bft) 97,87 %
18.05.2017 09:38 17,2 C 17,2 C 16,1 C 92 % 15 lf 1011,5 hPa 0,0 l/m 0 min 0 min 114 W/m 4,2 km/h (1 Bft) 97,87 %
18.05.2017 09:40 17,2 C 17,2 C 16,1 C 92 % 15 lf 1011,5 hPa 0,0 l/m 0 min 0 min 128 W/m 8,4 km/h (2 Bft) 97,87 %
18.05.2017 09:42 17,2 C 17,2 C 16,1 C 92 % 15 lf 1011,5 hPa 0,0 l/m 0 min 0 min 108 W/m 6,3 km/h (2 Bft) 97,83 %
18.05.2017 09:44 17,3 C 17,2 C 15,6 C 92 % 15 lf 1011,5 hPa 0,0 l/m 0 min 0 min 77 W/m 12,6 km/h (3 Bft) 95,74 %
18.05.2017 09:46 17,2 C 17,2 C 15,6 C 92 % 15 lf 1011,5 hPa 0,0 l/m 0 min 0 min 78 W/m 8,4 km/h (2 Bft) 97,87 %
18.05.2017 09:48 17,2 C 16,7 C 15,6 C 92 % 15 lf 1011,5 hPa 0,0 l/m 0 min 0 min 82 W/m 12,6 km/h (3 Bft) 97,87 %
18.05.2017 09:50 17,2 C 16,7 C 15,6 C 91 % 15 lf 1011,5 hPa 0,0 l/m 0 min 0 min 80 W/m 8,4 km/h (2 Bft) 93,62 %
18.05.2017 09:52 17,2 C 17,2 C 15,6 C 91 % 15 lf 1011,5 hPa 0,0 l/m 0 min 0 min 91 W/m 6,3 km/h (2 Bft) 95,65 %
18.05.2017 09:54 17,2 C 17,2 C 16,1 C 91 % 15 lf 1011,5 hPa 0,0 l/m 0 min 0 min 96 W/m 6,3 km/h (2 Bft) 95,74 %
18.05.2017 09:56 17,2 C 17,2 C 15,6 C 92 % 14 lf 1011,5 hPa 0,0 l/m 0 min 0 min 88 W/m 8,4 km/h (2 Bft) 95,74 %
18.05.2017 09:58 17,2 C 17,2 C 15,6 C 92 % 11 lf 1011,6 hPa 0,0 l/m 0 min 0 min 80 W/m 10,5 km/h (2 Bft) 97,87 %
18.05.2017 10:00 17,2 C 17,2 C 15,6 C 92 % 6 lf 1011,6 hPa 0,0 l/m 0 min 0 min 70 W/m 12,6 km/h (3 Bft) 97,87 %
18.05.2017 10:02 17,2 C 17,2 C 15,0 C 91 % 3 lf 1011,6 hPa 0,0 l/m 0 min 0 min 57 W/m 10,5 km/h (2 Bft) 97,87 %
18.05.2017 10:04 17,2 C 16,7 C 15,6 C 91 % 2 lf 1011,7 hPa 0,0 l/m 0 min 0 min 63 W/m 10,5 km/h (2 Bft) 95,65 %
18.05.2017 10:06 17,1 C 16,7 C 15,0 C 91 % 0 lf 1011,6 hPa 0,0 l/m 0 min 0 min 70 W/m 12,6 km/h (3 Bft) 100,00 %
18.05.2017 10:08 17,1 C 16,7 C 15,6 C 91 % 0 lf 1011,5 hPa 0,0 l/m 0 min 0 min 66 W/m 8,4 km/h (2 Bft) 95,74 %
18.05.2017 10:10 17,1 C 16,7 C 15,6 C 91 % 0 lf 1011,6 hPa 0,0 l/m 0 min 0 min 62 W/m 6,3 km/h (2 Bft) 95,74 %
18.05.2017 10:12 17,1 C 17,2 C 15,6 C 91 % 0 lf 1011,7 hPa 0,0 l/m 0 min 0 min 70 W/m 4,2 km/h (1 Bft) 95,74 %
18.05.2017 10:14 17,2 C 17,2 C 15,6 C 91 % 0 lf 1011,7 hPa 0,0 l/m 0 min 0 min 73 W/m 6,3 km/h (2 Bft) 97,87 %
18.05.2017 10:16 17,2 C 17,2 C 15,6 C 92 % 3 lf 1011,6 hPa 0,0 l/m 0 min 2 min 73 W/m 12,6 km/h (3 Bft) 97,83 %
18.05.2017 10:18 17,2 C 17,2 C 15,6 C 92 % 3 lf 1011,5 hPa 0,0 l/m 0 min 2 min 82 W/m 10,5 km/h (2 Bft) 93,62 %
18.05.2017 10:20 17,2 C 17,2 C 15,6 C 92 % 3 lf 1011,5 hPa 0,0 l/m 0 min 0 min 87 W/m 10,5 km/h (2 Bft) 97,87 %
18.05.2017 10:22 17,2 C 17,2 C 15,6 C 92 % 3 lf 1011,4 hPa 0,0 l/m 0 min 2 min 87 W/m 8,4 km/h (2 Bft) 97,87 %
18.05.2017 10:24 17,2 C 17,2 C 15,6 C 92 % 8 lf 1011,5 hPa 0,0 l/m 0 min 2 min 99 W/m 8,4 km/h (2 Bft) 95,74 %
18.05.2017 10:26 17,2 C 17,2 C 15,6 C 92 % 9 lf 1011,5 hPa 0,0 l/m 0 min 2 min 119 W/m 8,4 km/h (2 Bft) 95,74 %
18.05.2017 10:28 17,2 C 17,2 C 15,6 C 92 % 7 lf 1011,5 hPa 0,0 l/m 0 min 2 min 109 W/m 4,2 km/h (1 Bft) 97,83 %
18.05.2017 10:30 17,2 C 17,2 C 15,6 C 92 % 12 lf 1011,5 hPa 0,0 l/m 0 min 2 min 103 W/m 6,3 km/h (2 Bft) 97,87 %
18.05.2017 10:32 17,1 C 17,2 C 15,6 C 92 % 15 lf 1011,5 hPa 0,0 l/m 0 min 2 min 108 W/m 6,3 km/h (2 Bft) 95,74 %
18.05.2017 10:34 17,1 C 17,2 C 15,6 C 92 % 15 lf 1011,4 hPa 0,0 l/m 0 min 2 min 107 W/m 6,3 km/h (2 Bft) 97,87 %
18.05.2017 10:36 17,1 C 17,2 C 15,6 C 92 % 15 lf 1011,4 hPa 0,0 l/m 0 min 2 min 100 W/m 6,3 km/h (2 Bft) 93,62 %
18.05.2017 10:38 17,1 C 17,2 C 15,6 C 92 % 15 lf 1011,5 hPa 0,0 l/m 0 min 2 min 114 W/m 4,2 km/h (1 Bft) 97,87 %
18.05.2017 10:40 17,1 C 17,8 C 16,1 C 92 % 15 lf 1011,4 hPa 0,0 l/m 0 min 2 min 137 W/m 6,3 km/h (2 Bft) 95,65 %
18.05.2017 10:42 17,1 C 17,8 C 16,1 C 92 % 15 lf 1011,5 hPa 0,0 l/m 0 min 2 min 152 W/m 6,3 km/h (2 Bft) 97,87 %
18.05.2017 10:44 17,2 C 17,8 C 16,1 C 92 % 15 lf 1011,5 hPa 0,0 l/m 0 min 2 min 157 W/m 6,3 km/h (2 Bft) 97,87 %
18.05.2017 10:46 17,2 C 17,8 C 16,1 C 92 % 15 lf 1011,5 hPa 0,0 l/m 0 min 2 min 178 W/m 6,3 km/h (2 Bft) 93,62 %
18.05.2017 10:48 17,2 C 18,3 C 16,1 C 92 % 15 lf 1011,4 hPa 0,0 l/m 0 min 2 min 202 W/m 8,4 km/h (2 Bft) 91,49 %
18.05.2017 10:50 17,2 C 18,3 C 16,1 C 92 % 15 lf 1011,5 hPa 0,2 l/m 0 min 2 min 189 W/m 2,1 km/h (1 Bft) 95,74 %
18.05.2017 10:52 17,2 C 18,3 C 16,1 C 92 % 15 lf 1011,5 hPa 0,0 l/m 0 min 2 min 163 W/m 6,3 km/h (2 Bft) 93,48 %
18.05.2017 10:54 17,2 C 18,3 C 16,1 C 92 % 15 lf 1011,6 hPa 0,0 l/m 0 min 2 min 147 W/m 4,2 km/h (1 Bft) 95,74 %
18.05.2017 10:56 17,2 C 18,9 C 16,1 C 92 % 15 lf 1011,6 hPa 0,0 l/m 0 min 2 min 132 W/m 6,3 km/h (2 Bft) 95,74 %
18.05.2017 10:58 17,3 C 18,9 C 16,1 C 92 % 15 lf 1011,7 hPa 0,0 l/m 0 min 2 min 155 W/m 6,3 km/h (2 Bft) 93,62 %
18.05.2017 11:00 17,3 C 18,9 C 16,7 C 92 % 15 lf 1011,7 hPa 0,0 l/m 0 min 2 min 171 W/m 8,4 km/h (2 Bft) 97,87 %
18.05.2017 11:02 17,3 C 18,9 C 16,7 C 92 % 15 lf 1011,8 hPa 0,0 l/m 0 min 2 min 148 W/m 6,3 km/h (2 Bft) 95,65 %
18.05.2017 11:04 17,3 C 18,3 C 16,1 C 92 % 15 lf 1011,8 hPa 0,0 l/m 0 min 2 min 103 W/m 10,5 km/h (2 Bft) 97,87 %
18.05.2017 11:06 17,3 C 18,3 C 15,6 C 92 % 15 lf 1011,8 hPa 0,0 l/m 0 min 0 min 80 W/m 6,3 km/h (2 Bft) 97,73 %
18.05.2017 11:08 17,3 C 18,3 C 15,6 C 92 % 15 lf 1011,8 hPa 0,0 l/m 0 min 2 min 68 W/m 6,3 km/h (2 Bft) 93,62 %
18.05.2017 11:10 17,3 C 17,8 C 15,6 C 92 % 15 lf 1011,8 hPa 0,0 l/m 0 min 0 min 65 W/m 10,5 km/h (2 Bft) 91,49 %
18.05.2017 11:12 17,3 C 17,8 C 15,6 C 92 % 15 lf 1011,8 hPa 0,0 l/m 0 min 0 min 80 W/m 8,4 km/h (2 Bft) 95,74 %
18.05.2017 11:14 17,3 C 18,3 C 15,6 C 92 % 15 lf 1011,8 hPa 0,0 l/m 0 min 2 min 109 W/m 6,3 km/h (2 Bft) 93,48 %
18.05.2017 11:16 17,3 C 18,3 C 15,6 C 92 % 15 lf 1011,8 hPa 0,0 l/m 0 min 2 min 101 W/m 6,3 km/h (2 Bft) 93,62 %
18.05.2017 11:18 17,3 C 18,3 C 16,1 C 92 % 15 lf 1011,8 hPa 0,0 l/m 0 min 2 min 75 W/m 2,1 km/h (1 Bft) 95,74 %
18.05.2017 11:20 17,3 C 18,3 C 15,6 C 92 % 15 lf 1011,8 hPa 0,0 l/m 0 min 2 min 77 W/m 8,4 km/h (2 Bft) 91,53 %
18.05.2017 11:22 17,3 C 18,3 C 15,6 C 92 % 15 lf 1011,8 hPa 0,0 l/m 0 min 2 min 83 W/m 6,3 km/h (2 Bft) 94,29 %
18.05.2017 11:24 17,3 C 18,3 C 15,6 C 92 % 15 lf 1011,8 hPa 0,0 l/m 0 min 2 min 77 W/m 6,3 km/h (2 Bft) 91,49 %
18.05.2017 11:26 17,3 C 18,3 C 16,1 C 92 % 15 lf 1011,8 hPa 0,0 l/m 0 min 0 min 82 W/m 8,4 km/h (2 Bft) 95,65 %
18.05.2017 11:28 17,3 C 18,3 C 15,6 C 92 % 15 lf 1011,8 hPa 0,0 l/m 0 min 2 min 98 W/m 8,4 km/h (2 Bft) 95,74 %
18.05.2017 11:30 17,3 C 18,3 C 15,6 C 92 % 15 lf 1011,8 hPa 0,0 l/m 0 min 0 min 115 W/m 4,2 km/h (1 Bft) 93,62 %
18.05.2017 11:32 17,3 C 18,9 C 15,6 C 91 % 14 lf 1011,8 hPa 0,0 l/m 0 min 0 min 126 W/m 10,5 km/h (2 Bft) 93,75 %
18.05.2017 11:34 17,3 C 18,9 C 16,1 C 92 % 15 lf 1011,8 hPa 0,0 l/m 0 min 2 min 144 W/m 12,6 km/h (3 Bft) 93,62 %
18.05.2017 11:36 17,3 C 18,9 C 16,1 C 92 % 15 lf 1011,8 hPa 0,0 l/m 0 min 2 min 172 W/m 8,4 km/h (2 Bft) 96,36 %
18.05.2017 11:38 17,3 C 18,9 C 16,1 C 92 % 15 lf 1011,7 hPa 0,0 l/m 0 min 2 min 175 W/m 8,4 km/h (2 Bft) 93,62 %
18.05.2017 11:40 17,3 C 18,9 C 16,1 C 92 % 15 lf 1011,7 hPa 0,0 l/m 0 min 2 min 164 W/m 8,4 km/h (2 Bft) 93,62 %
18.05.2017 11:42 17,3 C 18,9 C 16,1 C 92 % 15 lf 1011,7 hPa 0,0 l/m 0 min 2 min 137 W/m 6,3 km/h (2 Bft) 93,62 %
18.05.2017 11:44 17,3 C 18,9 C 16,1 C 92 % 15 lf 1011,8 hPa 0,0 l/m 0 min 2 min 105 W/m 8,4 km/h (2 Bft) 95,74 %
18.05.2017 11:46 17,3 C 18,3 C 16,1 C 92 % 15 lf 1011,8 hPa 0,0 l/m 0 min 2 min 103 W/m 8,4 km/h (2 Bft) 93,48 %
18.05.2017 11:48 17,3 C 18,3 C 16,1 C 92 % 15 lf 1011,7 hPa 0,0 l/m 0 min 2 min 131 W/m 8,4 km/h (2 Bft) 95,74 %
18.05.2017 11:50 17,3 C 17,8 C 16,1 C 92 % 15 lf 1011,7 hPa 0,2 l/m 0 min 2 min 154 W/m 8,4 km/h (2 Bft) 95,74 %
18.05.2017 11:52 17,3 C 17,8 C 16,1 C 92 % 15 lf 1011,8 hPa 0,0 l/m 0 min 2 min 138 W/m 6,3 km/h (2 Bft) 95,74 %
18.05.2017 11:54 17,3 C 17,8 C 16,1 C 92 % 15 lf 1011,8 hPa 0,0 l/m 0 min 2 min 125 W/m 8,4 km/h (2 Bft) 95,74 %
18.05.2017 11:56 17,3 C 17,8 C 16,1 C 92 % 15 lf 1011,8 hPa 0,0 l/m 0 min 2 min 127 W/m 8,4 km/h (2 Bft) 95,74 %
18.05.2017 11:58 17,3 C 17,8 C 16,1 C 92 % 15 lf 1011,8 hPa 0,0 l/m 0 min 2 min 122 W/m 8,4 km/h (2 Bft) 95,65 %
18.05.2017 12:00 17,4 C 18,3 C 16,1 C 92 % 15 lf 1011,9 hPa 0,0 l/m 0 min 2 min 80 W/m 6,3 km/h (2 Bft) 95,74 %
18.05.2017 12:02 17,4 C 17,8 C 16,1 C 92 % 15 lf 1011,8 hPa 0,0 l/m 0 min 0 min 77 W/m 6,3 km/h (2 Bft) 93,62 %
18.05.2017 12:04 17,4 C 17,8 C 16,1 C 92 % 15 lf 1011,8 hPa 0,0 l/m 0 min 2 min 94 W/m 8,4 km/h (2 Bft) 95,74 %
18.05.2017 12:06 17,4 C 17,8 C 16,1 C 92 % 15 lf 1011,8 hPa 0,0 l/m 0 min 2 min 95 W/m 6,3 km/h (2 Bft) 93,62 %
18.05.2017 12:08 17,4 C 17,8 C 16,1 C 92 % 15 lf 1011,9 hPa 0,0 l/m 0 min 2 min 84 W/m 6,3 km/h (2 Bft) 95,74 %
18.05.2017 12:10 17,4 C 17,8 C 16,1 C 92 % 15 lf 1011,8 hPa 0,0 l/m 0 min 2 min 78 W/m 6,3 km/h (2 Bft) 95,74 %
18.05.2017 12:12 17,4 C 17,2 C 15,6 C 92 % 15 lf 1011,8 hPa 0,0 l/m 0 min 2 min 82 W/m 12,6 km/h (3 Bft) 100,00 %
18.05.2017 12:14 17,4 C 17,2 C 15,6 C 92 % 15 lf 1011,8 hPa 0,0 l/m 0 min 2 min 90 W/m 8,4 km/h (2 Bft) 95,74 %
18.05.2017 12:16 17,4 C 17,2 C 15,6 C 92 % 15 lf 1011,8 hPa 0,2 l/m 0 min 2 min 91 W/m 6,3 km/h (2 Bft) 100,00 %
18.05.2017 12:18 17,4 C 17,2 C 16,1 C 92 % 15 lf 1011,9 hPa 0,2 l/m 0 min 2 min 104 W/m 6,3 km/h (2 Bft) 100,00 %
18.05.2017 12:20 17,4 C 17,2 C 16,1 C 92 % 15 lf 1011,8 hPa 0,2 l/m 0 min 2 min 136 W/m 2,1 km/h (1 Bft) 100,00 %
18.05.2017 12:22 17,4 C 17,2 C 16,1 C 92 % 15 lf 1011,8 hPa 0,0 l/m 0 min 2 min 158 W/m 6,3 km/h (2 Bft) 100,00 %
18.05.2017 12:24 17,4 C 17,2 C 16,7 C 93 % 15 lf 1011,9 hPa 0,0 l/m 0 min 2 min 148 W/m 6,3 km/h (2 Bft) 95,74 %
18.05.2017 12:26 17,4 C 16,7 C 16,1 C 93 % 15 lf 1011,9 hPa 0,0 l/m 0 min 2 min 123 W/m 8,4 km/h (2 Bft) 100,00 %
18.05.2017 12:28 17,4 C 16,7 C 16,1 C 93 % 15 lf 1011,9 hPa 0,0 l/m 0 min 2 min 104 W/m 6,3 km/h (2 Bft) 100,00 %
18.05.2017 12:30 17,4 C 16,7 C 15,6 C 93 % 15 lf 1011,9 hPa 0,0 l/m 0 min 2 min 94 W/m 8,4 km/h (2 Bft) 97,87 %
18.05.2017 12:32 17,4 C 16,7 C 15,6 C 93 % 15 lf 1011,9 hPa 0,0 l/m 0 min 2 min 99 W/m 6,3 km/h (2 Bft) 100,00 %
18.05.2017 12:34 17,3 C 16,7 C 15,6 C 93 % 15 lf 1011,9 hPa 0,0 l/m 0 min 2 min 106 W/m 8,4 km/h (2 Bft) 97,87 %
18.05.2017 12:36 17,3 C 16,7 C 15,6 C 93 % 15 lf 1011,8 hPa 0,2 l/m 0 min 2 min 114 W/m 6,3 km/h (2 Bft) 97,96 %
18.05.2017 12:38 17,3 C 16,7 C 15,6 C 92 % 15 lf 1011,8 hPa 0,0 l/m 0 min 2 min 120 W/m 6,3 km/h (2 Bft) 100,00 %
18.05.2017 12:40 17,3 C 16,7 C 15,6 C 92 % 15 lf 1011,9 hPa 0,0 l/m 0 min 2 min 134 W/m 6,3 km/h (2 Bft) 97,87 %
18.05.2017 12:42 17,3 C 17,2 C 16,1 C 93 % 15 lf 1011,9 hPa 0,0 l/m 0 min 2 min 143 W/m 8,4 km/h (2 Bft) 100,00 %
18.05.2017 12:44 17,3 C 17,2 C 16,1 C 93 % 15 lf 1011,9 hPa 0,2 l/m 0 min 2 min 154 W/m 6,3 km/h (2 Bft) 100,00 %
18.05.2017 12:46 17,3 C 17,2 C 16,1 C 93 % 15 lf 1011,8 hPa 0,0 l/m 0 min 2 min 164 W/m 6,3 km/h (2 Bft) 97,83 %
18.05.2017 12:48 17,3 C 17,2 C 16,1 C 93 % 15 lf 1011,8 hPa 0,0 l/m 0 min 2 min 172 W/m 8,4 km/h (2 Bft) 97,87 %
18.05.2017 12:50 17,4 C 17,2 C 16,7 C 93 % 15 lf 1011,9 hPa 0,0 l/m 0 min 2 min 178 W/m 6,3 km/h (2 Bft) 97,87 %
18.05.2017 12:52 17,4 C 17,8 C 16,7 C 93 % 15 lf 1011,9 hPa 0,0 l/m 0 min 2 min 187 W/m 6,3 km/h (2 Bft) 97,87 %
18.05.2017 12:54 17,4 C 17,8 C 16,7 C 93 % 15 lf 1011,9 hPa 0,0 l/m 0 min 2 min 191 W/m 2,1 km/h (1 Bft) 100,00 %
18.05.2017 12:56 17,4 C 17,8 C 16,7 C 93 % 15 lf 1011,8 hPa 0,0 l/m 0 min 2 min 184 W/m 0,0 km/h (0 Bft) 100,00 %
18.05.2017 12:58 17,5 C 17,8 C 16,7 C 93 % 15 lf 1011,8 hPa 0,0 l/m 0 min 2 min 183 W/m 6,3 km/h (2 Bft) 95,65 %
18.05.2017 13:00 17,6 C 17,8 C 16,7 C 93 % 15 lf 1011,8 hPa 0,2 l/m 0 min 2 min 180 W/m 8,4 km/h (2 Bft) 97,87 %
18.05.2017 13:02 17,6 C 17,8 C 16,7 C 93 % 15 lf 1011,8 hPa 0,0 l/m 0 min 2 min 169 W/m 6,3 km/h (2 Bft) 95,74 %
18.05.2017 13:04 17,6 C 17,8 C 16,7 C 94 % 15 lf 1011,8 hPa 0,0 l/m 0 min 2 min 160 W/m 6,3 km/h (2 Bft) 95,74 %
18.05.2017 13:06 17,6 C 17,8 C 16,7 C 94 % 15 lf 1011,8 hPa 0,0 l/m 0 min 2 min 156 W/m 4,2 km/h (1 Bft) 95,74 %
18.05.2017 13:08 17,7 C 17,8 C 16,7 C 94 % 15 lf 1011,8 hPa 0,0 l/m 0 min 2 min 157 W/m 4,2 km/h (1 Bft) 97,87 %
18.05.2017 13:10 17,7 C 17,8 C 16,7 C 94 % 15 lf 1011,8 hPa 0,0 l/m 0 min 2 min 172 W/m 4,2 km/h (1 Bft) 95,74 %
18.05.2017 13:12 17,7 C 18,3 C 16,7 C 94 % 15 lf 1011,8 hPa 0,0 l/m 0 min 2 min 193 W/m 8,4 km/h (2 Bft) 95,65 %
18.05.2017 13:14 17,7 C 17,8 C 16,7 C 94 % 15 lf 1011,8 hPa 0,0 l/m 0 min 2 min 208 W/m 8,4 km/h (2 Bft) 93,62 %
18.05.2017 13:16 17,7 C 18,3 C 16,7 C 93 % 15 lf 1011,8 hPa 0,2 l/m 0 min 2 min 214 W/m 8,4 km/h (2 Bft) 93,62 %
18.05.2017 13:18 17,7 C 18,3 C 16,7 C 94 % 15 lf 1011,8 hPa 0,2 l/m 0 min 2 min 206 W/m 4,2 km/h (1 Bft) 97,87 %
18.05.2017 13:20 17,7 C 17,8 C 16,1 C 93 % 15 lf 1011,8 hPa 0,0 l/m 0 min 2 min 188 W/m 6,3 km/h (2 Bft) 95,74 %
18.05.2017 13:22 17,7 C 17,8 C 16,1 C 93 % 15 lf 1011,8 hPa 0,0 l/m 0 min 2 min 192 W/m 6,3 km/h (2 Bft) 93,62 %
18.05.2017 13:24 17,6 C 17,8 C 16,1 C 93 % 15 lf 1011,8 hPa 0,0 l/m 0 min 2 min 198 W/m 6,3 km/h (2 Bft) 97,83 %
18.05.2017 13:26 17,7 C 18,3 C 16,7 C 93 % 15 lf 1011,8 hPa 0,0 l/m 0 min 2 min 207 W/m 2,1 km/h (1 Bft) 95,74 %
18.05.2017 13:28 17,7 C 18,3 C 16,7 C 93 % 15 lf 1011,8 hPa 0,0 l/m 0 min 2 min 235 W/m 6,3 km/h (2 Bft) 93,62 %
18.05.2017 13:30 17,7 C 18,3 C 16,7 C 93 % 15 lf 1011,8 hPa 0,0 l/m 0 min 2 min 262 W/m 4,2 km/h (1 Bft) 95,74 %
18.05.2017 13:32 17,7 C 18,9 C 16,7 C 93 % 15 lf 1011,8 hPa 0,0 l/m 0 min 2 min 278 W/m 4,2 km/h (1 Bft) 93,62 %
18.05.2017 13:34 17,7 C 18,9 C 17,8 C 93 % 15 lf 1011,8 hPa 0,0 l/m 0 min 2 min 294 W/m 4,2 km/h (1 Bft) 95,74 %
18.05.2017 13:36 17,8 C 19,4 C 17,8 C 94 % 15 lf 1011,8 hPa 0,0 l/m 0 min 2 min 315 W/m 2,1 km/h (1 Bft) 94,34 %
18.05.2017 13:38 17,8 C 18,9 C 17,8 C 94 % 15 lf 1011,8 hPa 0,0 l/m 0 min 2 min 325 W/m 6,3 km/h (2 Bft) 93,62 %
18.05.2017 13:40 17,9 C 19,4 C 17,8 C 94 % 15 lf 1011,8 hPa 0,0 l/m 0 min 0 min 323 W/m 4,2 km/h (1 Bft) 91,49 %
18.05.2017 13:42 17,9 C 19,4 C 17,2 C 94 % 15 lf 1011,7 hPa 0,0 l/m 0 min 0 min 316 W/m 6,3 km/h (2 Bft) 93,62 %
18.05.2017 13:44 17,9 C 20,0 C 17,8 C 94 % 15 lf 1011,8 hPa 0,0 l/m 0 min 0 min 314 W/m 2,1 km/h (1 Bft) 93,48 %
18.05.2017 13:46 17,9 C 19,4 C 17,8 C 94 % 15 lf 1011,8 hPa 0,0 l/m 0 min 0 min 333 W/m 4,2 km/h (1 Bft) 91,49 %
18.05.2017 13:48 18,0 C 20,0 C 18,3 C 94 % 15 lf 1011,8 hPa 0,0 l/m 0 min 0 min 373 W/m 4,2 km/h (1 Bft) 91,49 %
18.05.2017 13:50 18,1 C 20,0 C 18,3 C 94 % 15 lf 1011,7 hPa 0,0 l/m 0 min 0 min 388 W/m 6,3 km/h (2 Bft) 93,62 %
18.05.2017 13:52 18,1 C 20,6 C 18,3 C 94 % 15 lf 1011,7 hPa 0,0 l/m 0 min 0 min 390 W/m 6,3 km/h (2 Bft) 95,74 %
18.05.2017 13:54 18,1 C 20,6 C 18,3 C 94 % 15 lf 1011,6 hPa 0,0 l/m 0 min 0 min 373 W/m 4,2 km/h (1 Bft) 95,65 %
18.05.2017 13:56 18,2 C 20,0 C 18,9 C 94 % 15 lf 1011,6 hPa 0,0 l/m 0 min 0 min 340 W/m 4,2 km/h (1 Bft) 93,62 %
18.05.2017 13:58 18,3 C 20,6 C 18,3 C 94 % 14 lf 1011,6 hPa 0,0 l/m 0 min 0 min 293 W/m 6,3 km/h (2 Bft) 95,74 %
18.05.2017 14:00 18,3 C 20,6 C 18,3 C 94 % 14 lf 1011,6 hPa 0,0 l/m 0 min 0 min 253 W/m 6,3 km/h (2 Bft) 95,74 %
18.05.2017 14:02 18,4 C 20,0 C 17,8 C 94 % 13 lf 1011,7 hPa 0,0 l/m 0 min 0 min 227 W/m 6,3 km/h (2 Bft) 97,87 %
18.05.2017 14:04 18,4 C 19,4 C 17,2 C 94 % 11 lf 1011,7 hPa 0,0 l/m 0 min 0 min 224 W/m 6,3 km/h (2 Bft) 95,74 %
18.05.2017 14:06 18,3 C 18,9 C 17,8 C 93 % 11 lf 1011,7 hPa 0,0 l/m 0 min 2 min 217 W/m 2,1 km/h (1 Bft) 97,83 %
18.05.2017 14:08 18,3 C 19,4 C 17,8 C 93 % 9 lf 1011,7 hPa 0,0 l/m 0 min 0 min 209 W/m 4,2 km/h (1 Bft) 95,74 %
18.05.2017 14:10 18,3 C 20,0 C 17,8 C 93 % 11 lf 1011,7 hPa 0,0 l/m 0 min 0 min 205 W/m 6,3 km/h (2 Bft) 97,87 %
18.05.2017 14:12 18,4 C 19,4 C 17,8 C 93 % 14 lf 1011,7 hPa 0,0 l/m 0 min 2 min 207 W/m 4,2 km/h (1 Bft) 97,87 %
18.05.2017 14:14 18,4 C 19,4 C 17,8 C 93 % 14 lf 1011,7 hPa 0,0 l/m 0 min 2 min 206 W/m 6,3 km/h (2 Bft) 95,74 %
18.05.2017 14:16 18,4 C 19,4 C 17,8 C 92 % 15 lf 1011,8 hPa 0,0 l/m 0 min 2 min 196 W/m 8,4 km/h (2 Bft) 95,74 %
18.05.2017 14:18 18,4 C 19,4 C 17,8 C 92 % 15 lf 1011,8 hPa 0,0 l/m 0 min 2 min 176 W/m 6,3 km/h (2 Bft) 97,83 %
18.05.2017 14:20 18,5 C 19,4 C 17,2 C 93 % 15 lf 1011,8 hPa 0,0 l/m 0 min 2 min 147 W/m 4,2 km/h (1 Bft) 95,74 %
18.05.2017 14:22 18,5 C 18,9 C 17,2 C 92 % 15 lf 1011,8 hPa 0,0 l/m 0 min 2 min 135 W/m 6,3 km/h (2 Bft) 100,00 %
18.05.2017 14:24 18,5 C 18,9 C 16,7 C 92 % 15 lf 1011,7 hPa 0,0 l/m 0 min 2 min 153 W/m 4,2 km/h (1 Bft) 97,87 %
18.05.2017 14:26 18,4 C 18,9 C 17,2 C 92 % 15 lf 1011,7 hPa 0,0 l/m 0 min 2 min 195 W/m 6,3 km/h (2 Bft) 95,74 %
18.05.2017 14:28 18,4 C 18,9 C 17,2 C 92 % 14 lf 1011,7 hPa 0,0 l/m 0 min 0 min 236 W/m 6,3 km/h (2 Bft) 100,00 %
18.05.2017 14:30 18,4 C 19,4 C 17,8 C 92 % 11 lf 1011,8 hPa 0,0 l/m 0 min 0 min 257 W/m 6,3 km/h (2 Bft) 100,00 %
18.05.2017 14:32 18,4 C 19,4 C 17,8 C 91 % 7 lf 1011,7 hPa 0,0 l/m 0 min 0 min 275 W/m 4,2 km/h (1 Bft) 93,62 %
18.05.2017 14:34 18,4 C 20,0 C 18,3 C 91 % 3 lf 1011,7 hPa 0,0 l/m 0 min 0 min 283 W/m 2,1 km/h (1 Bft) 97,87 %
18.05.2017 14:36 18,4 C 20,0 C 18,3 C 91 % 2 lf 1011,6 hPa 0,0 l/m 0 min 0 min 278 W/m 4,2 km/h (1 Bft) 100,00 %
18.05.2017 14:38 18,4 C 20,0 C 18,3 C 91 % 0 lf 1011,6 hPa 0,0 l/m 0 min 0 min 277 W/m 6,3 km/h (2 Bft) 97,87 %
18.05.2017 14:40 18,4 C 20,6 C 18,3 C 91 % 0 lf 1011,6 hPa 0,0 l/m 0 min 0 min 279 W/m 8,4 km/h (2 Bft) 97,87 %
18.05.2017 14:42 18,4 C 20,6 C 18,9 C 91 % 0 lf 1011,6 hPa 0,0 l/m 0 min 0 min 276 W/m 8,4 km/h (2 Bft) 97,87 %
18.05.2017 14:44 18,4 C 20,0 C 18,3 C 91 % 1 lf 1011,7 hPa 0,0 l/m 0 min 0 min 255 W/m 6,3 km/h (2 Bft) 97,83 %
18.05.2017 14:46 18,5 C 20,0 C 18,3 C 91 % 0 lf 1011,7 hPa 0,0 l/m 0 min 0 min 218 W/m 6,3 km/h (2 Bft) 97,87 %
18.05.2017 14:48 18,5 C 19,4 C 18,3 C 91 % 0 lf 1011,7 hPa 0,0 l/m 0 min 0 min 193 W/m 6,3 km/h (2 Bft) 97,87 %
18.05.2017 14:50 18,5 C 18,9 C 18,3 C 91 % 0 lf 1011,6 hPa 0,0 l/m 0 min 0 min 161 W/m 4,2 km/h (1 Bft) 95,74 %
18.05.2017 14:52 18,5 C 18,9 C 17,8 C 91 % 0 lf 1011,6 hPa 0,0 l/m 0 min 0 min 145 W/m 6,3 km/h (2 Bft) 97,87 %
18.05.2017 14:54 18,5 C 18,9 C 17,8 C 91 % 0 lf 1011,6 hPa 0,0 l/m 0 min 0 min 148 W/m 6,3 km/h (2 Bft) 97,87 %
18.05.2017 14:56 18,5 C 18,3 C 17,8 C 91 % 0 lf 1011,5 hPa 0,0 l/m 0 min 0 min 154 W/m 2,1 km/h (1 Bft) 97,83 %
18.05.2017 14:58 18,5 C 18,3 C 17,8 C 90 % 0 lf 1011,5 hPa 0,0 l/m 0 min 0 min 149 W/m 0,0 km/h (0 Bft) 97,87 %
18.05.2017 15:00 18,5 C 18,9 C 17,8 C 90 % 0 lf 1011,4 hPa 0,0 l/m 0 min 0 min 141 W/m 0,0 km/h (0 Bft) 95,74 %
18.05.2017 15:02 18,4 C 19,4 C 17,8 C 90 % 0 lf 1011,4 hPa 0,0 l/m 0 min 0 min 144 W/m 0,0 km/h (0 Bft) 95,74 %
18.05.2017 15:04 18,4 C 19,4 C 17,8 C 89 % 1 lf 1011,3 hPa 0,0 l/m 0 min 0 min 151 W/m 0,0 km/h (0 Bft) 97,87 %
18.05.2017 15:06 18,4 C 20,0 C 17,8 C 89 % 1 lf 1011,4 hPa 0,0 l/m 0 min 0 min 157 W/m 0,0 km/h (0 Bft) 98,21 %
18.05.2017 15:08 18,4 C 20,0 C 17,8 C 89 % 0 lf 1011,3 hPa 0,0 l/m 0 min 2 min 161 W/m 0,0 km/h (0 Bft) 97,87 %
18.05.2017 15:10 18,4 C 20,6 C 17,8 C 89 % 0 lf 1011,3 hPa 0,0 l/m 0 min 2 min 165 W/m 0,0 km/h (0 Bft) 97,87 %
18.05.2017 15:12 18,4 C 20,6 C 17,8 C 89 % 0 lf 1011,3 hPa 0,0 l/m 0 min 0 min 177 W/m 0,0 km/h (0 Bft) 97,22 %
18.05.2017 15:14 18,4 C 20,6 C 17,8 C 88 % 0 lf 1011,2 hPa 0,0 l/m 0 min 0 min 203 W/m 6,3 km/h (2 Bft) 95,74 %
18.05.2017 15:16 18,4 C 21,1 C 17,8 C 88 % 0 lf 1011,2 hPa 0,0 l/m 0 min 0 min 229 W/m 6,3 km/h (2 Bft) 91,49 %
18.05.2017 15:18 18,4 C 21,7 C 18,3 C 88 % 0 lf 1011,2 hPa 0,0 l/m 0 min 0 min 262 W/m 4,2 km/h (1 Bft) 97,87 %
18.05.2017 15:20 18,4 C 22,2 C 18,9 C 88 % 0 lf 1011,1 hPa 0,0 l/m 0 min 0 min 301 W/m 8,4 km/h (2 Bft) 97,83 %
18.05.2017 15:22 18,4 C 22,2 C 18,9 C 88 % 0 lf 1011,1 hPa 0,0 l/m 0 min 2 min 313 W/m 10,5 km/h (2 Bft) 97,87 %
18.05.2017 15:24 18,5 C 22,2 C 18,9 C 88 % 0 lf 1011,1 hPa 0,0 l/m 0 min 0 min 320 W/m 8,4 km/h (2 Bft) 93,62 %
18.05.2017 15:26 18,6 C 22,8 C 19,4 C 89 % 0 lf 1011,1 hPa 0,0 l/m 2 min 0 min 389 W/m 8,4 km/h (2 Bft) 95,74 %
18.05.2017 15:28 18,6 C 24,4 C 20,6 C 89 % 0 lf 1011,0 hPa 0,0 l/m 2 min 0 min 488 W/m 4,2 km/h (1 Bft) 95,74 %
18.05.2017 15:30 18,7 C 24,4 C 20,6 C 89 % 0 lf 1010,9 hPa 0,0 l/m 2 min 0 min 472 W/m 8,4 km/h (2 Bft) 95,74 %
18.05.2017 15:32 18,7 C 23,9 C 20,0 C 89 % 0 lf 1010,9 hPa 0,0 l/m 0 min 0 min 354 W/m 8,4 km/h (2 Bft) 93,75 %
18.05.2017 15:34 18,7 C 23,9 C 20,0 C 89 % 0 lf 1010,9 hPa 0,0 l/m 0 min 0 min 305 W/m 4,2 km/h (1 Bft) 95,74 %
18.05.2017 15:36 18,7 C 23,9 C 20,0 C 89 % 1 lf 1011,0 hPa 0,0 l/m 0 min 0 min 288 W/m 6,3 km/h (2 Bft) 95,83 %
18.05.2017 15:38 18,8 C 23,3 C 20,0 C 89 % 1 lf 1011,0 hPa 0,0 l/m 0 min 2 min 278 W/m 8,4 km/h (2 Bft) 95,74 %
18.05.2017 15:40 18,8 C 22,8 C 19,4 C 89 % 1 lf 1010,9 hPa 0,0 l/m 0 min 2 min 286 W/m 6,3 km/h (2 Bft) 95,74 %
18.05.2017 15:42 18,9 C 23,3 C 19,4 C 88 % 0 lf 1010,9 hPa 0,0 l/m 0 min 2 min 286 W/m 6,3 km/h (2 Bft) 93,62 %
18.05.2017 15:44 18,9 C 23,3 C 20,0 C 88 % 1 lf 1010,8 hPa 0,0 l/m 0 min 0 min 351 W/m 6,3 km/h (2 Bft) 91,30 %
18.05.2017 15:46 18,9 C 23,9 C 20,0 C 88 % 0 lf 1010,7 hPa 0,0 l/m 0 min 0 min 352 W/m 8,4 km/h (2 Bft) 97,87 %
18.05.2017 15:48 19,0 C 23,9 C 20,6 C 88 % 0 lf 1010,6 hPa 0,0 l/m 0 min 0 min 344 W/m 10,5 km/h (2 Bft) 95,74 %
18.05.2017 15:50 19,0 C 24,4 C 21,1 C 88 % 0 lf 1010,7 hPa 0,0 l/m 2 min 0 min 484 W/m 10,5 km/h (2 Bft) 97,87 %
18.05.2017 15:52 19,1 C 25,6 C 22,2 C 88 % 0 lf 1010,6 hPa 0,0 l/m 2 min 2 min 575 W/m 14,6 km/h (3 Bft) 95,74 %
18.05.2017 15:54 19,2 C 25,6 C 22,2 C 88 % 0 lf 1010,6 hPa 0,0 l/m 2 min 0 min 490 W/m 14,6 km/h (3 Bft) 93,62 %
18.05.2017 15:56 19,2 C 23,9 C 21,1 C 88 % 2 lf 1010,6 hPa 0,0 l/m 0 min 2 min 283 W/m 12,6 km/h (3 Bft) 93,48 %
18.05.2017 15:58 19,3 C 23,9 C 20,6 C 87 % 0 lf 1010,6 hPa 0,0 l/m 0 min 0 min 257 W/m 8,4 km/h (2 Bft) 93,62 %
18.05.2017 16:00 19,3 C 23,3 C 20,6 C 87 % 0 lf 1010,6 hPa 0,0 l/m 0 min 0 min 264 W/m 6,3 km/h (2 Bft) 97,87 %
18.05.2017 16:02 19,4 C 23,3 C 20,6 C 88 % 0 lf 1010,6 hPa 0,0 l/m 0 min 0 min 241 W/m 14,6 km/h (3 Bft) 95,74 %
18.05.2017 16:04 19,4 C 22,8 C 20,6 C 87 % 0 lf 1010,7 hPa 0,0 l/m 0 min 2 min 209 W/m 10,5 km/h (2 Bft) 93,62 %
18.05.2017 16:06 19,4 C 22,2 C 20,6 C 87 % 0 lf 1010,7 hPa 0,0 l/m 0 min 0 min 211 W/m 8,4 km/h (2 Bft) 95,74 %
18.05.2017 16:08 19,5 C 21,7 C 20,6 C 87 % 0 lf 1010,7 hPa 0,0 l/m 0 min 0 min 204 W/m 4,2 km/h (1 Bft) 95,65 %
18.05.2017 16:10 19,6 C 21,1 C 20,6 C 86 % 0 lf 1010,6 hPa 0,0 l/m 0 min 0 min 181 W/m 8,4 km/h (2 Bft) 95,74 %
18.05.2017 16:12 19,6 C 20,6 C 20,6 C 86 % 0 lf 1010,6 hPa 0,0 l/m 0 min 0 min 148 W/m 6,3 km/h (2 Bft) 95,74 %
18.05.2017 16:14 19,6 C 20,0 C 20,0 C 85 % 1 lf 1010,6 hPa 0,0 l/m 0 min 2 min 128 W/m 6,3 km/h (2 Bft) 95,74 %
18.05.2017 16:16 19,6 C 20,0 C 19,4 C 85 % 1 lf 1010,6 hPa 0,0 l/m 0 min 2 min 117 W/m 6,3 km/h (2 Bft) 93,62 %
18.05.2017 16:18 19,6 C 20,0 C 18,9 C 84 % 1 lf 1010,6 hPa 0,0 l/m 0 min 2 min 111 W/m 4,2 km/h (1 Bft) 97,87 %
18.05.2017 16:20 19,6 C 20,0 C 18,9 C 84 % 0 lf 1010,6 hPa 0,0 l/m 0 min 2 min 103 W/m 4,2 km/h (1 Bft) 95,65 %
18.05.2017 16:22 19,6 C 20,6 C 18,9 C 84 % 1 lf 1010,6 hPa 0,0 l/m 0 min 2 min 100 W/m 4,2 km/h (1 Bft) 95,74 %
18.05.2017 16:24 19,6 C 20,6 C 18,9 C 84 % 0 lf 1010,6 hPa 0,0 l/m 0 min 0 min 94 W/m 6,3 km/h (2 Bft) 91,49 %
18.05.2017 16:26 19,6 C 20,0 C 18,9 C 84 % 0 lf 1010,6 hPa 0,0 l/m 0 min 0 min 90 W/m 6,3 km/h (2 Bft) 95,74 %
18.05.2017 16:28 19,5 C 20,0 C 18,3 C 84 % 0 lf 1010,6 hPa 0,0 l/m 0 min 0 min 84 W/m 6,3 km/h (2 Bft) 95,74 %
18.05.2017 16:30 19,5 C 20,0 C 18,3 C 83 % 1 lf 1010,6 hPa 0,0 l/m 0 min 0 min 84 W/m 8,4 km/h (2 Bft) 95,74 %
18.05.2017 16:32 19,4 C 20,0 C 18,3 C 83 % 0 lf 1010,6 hPa 0,0 l/m 0 min 0 min 88 W/m 6,3 km/h (2 Bft) 93,48 %
18.05.2017 16:34 19,4 C 20,0 C 18,3 C 83 % 0 lf 1010,5 hPa 0,0 l/m 0 min 0 min 91 W/m 6,3 km/h (2 Bft) 95,74 %
18.05.2017 16:36 19,4 C 20,0 C 18,3 C 83 % 0 lf 1010,6 hPa 0,0 l/m 0 min 0 min 102 W/m 4,2 km/h (1 Bft) 93,62 %
18.05.2017 16:38 19,4 C 20,0 C 18,9 C 83 % 0 lf 1010,5 hPa 0,0 l/m 0 min 0 min 114 W/m 4,2 km/h (1 Bft) 91,49 %
18.05.2017 16:40 19,3 C 20,0 C 18,9 C 83 % 0 lf 1010,6 hPa 0,0 l/m 0 min 0 min 117 W/m 0,0 km/h (0 Bft) 93,62 %
18.05.2017 16:42 19,3 C 20,6 C 18,9 C 83 % 0 lf 1010,6 hPa 0,0 l/m 0 min 0 min 114 W/m 2,1 km/h (1 Bft) 95,65 %
18.05.2017 16:44 19,3 C 20,6 C 18,9 C 83 % 0 lf 1010,5 hPa 0,0 l/m 0 min 0 min 119 W/m 0,0 km/h (0 Bft) 93,62 %
18.05.2017 16:46 19,3 C 20,6 C 18,9 C 84 % 0 lf 1010,6 hPa 0,0 l/m 0 min 0 min 118 W/m 2,1 km/h (1 Bft) 95,74 %
18.05.2017 16:48 19,3 C 20,6 C 18,9 C 84 % 0 lf 1010,6 hPa 0,0 l/m 0 min 0 min 105 W/m 6,3 km/h (2 Bft) 95,74 %
18.05.2017 16:50 19,3 C 20,0 C 18,9 C 84 % 0 lf 1010,6 hPa 0,0 l/m 0 min 0 min 99 W/m 6,3 km/h (2 Bft) 95,74 %
18.05.2017 16:52 19,3 C 20,0 C 18,9 C 84 % 0 lf 1010,6 hPa 0,0 l/m 0 min 0 min 106 W/m 6,3 km/h (2 Bft) 91,49 %
18.05.2017 16:54 19,3 C 20,6 C 18,9 C 84 % 1 lf 1010,6 hPa 0,0 l/m 0 min 0 min 122 W/m 6,3 km/h (2 Bft) 97,83 %
18.05.2017 16:56 19,3 C 20,6 C 18,9 C 84 % 0 lf 1010,6 hPa 0,0 l/m 0 min 2 min 132 W/m 6,3 km/h (2 Bft) 97,87 %
18.05.2017 16:58 19,3 C 20,0 C 18,9 C 85 % 1 lf 1010,6 hPa 0,0 l/m 0 min 2 min 133 W/m 6,3 km/h (2 Bft) 97,87 %
18.05.2017 17:00 19,3 C 20,0 C 18,9 C 85 % 2 lf 1010,6 hPa 0,0 l/m 0 min 2 min 128 W/m 4,2 km/h (1 Bft) 97,87 %
18.05.2017 17:02 19,3 C 19,4 C 18,3 C 85 % 1 lf 1010,5 hPa 0,0 l/m 0 min 2 min 130 W/m 6,3 km/h (2 Bft) 97,87 %
18.05.2017 17:04 19,3 C 19,4 C 18,3 C 85 % 1 lf 1010,5 hPa 0,0 l/m 0 min 2 min 138 W/m 6,3 km/h (2 Bft) 95,74 %
18.05.2017 17:06 19,3 C 19,4 C 18,3 C 86 % 1 lf 1010,5 hPa 0,0 l/m 0 min 2 min 150 W/m 6,3 km/h (2 Bft) 97,83 %
18.05.2017 17:08 19,4 C 20,0 C 18,3 C 86 % 2 lf 1010,5 hPa 0,0 l/m 0 min 2 min 172 W/m 6,3 km/h (2 Bft) 100,00 %
18.05.2017 17:10 19,4 C 20,0 C 18,3 C 86 % 1 lf 1010,5 hPa 0,0 l/m 0 min 2 min 190 W/m 4,2 km/h (1 Bft) 100,00 %
18.05.2017 17:12 19,4 C 20,6 C 18,3 C 86 % 4 lf 1010,5 hPa 0,0 l/m 0 min 2 min 191 W/m 4,2 km/h (1 Bft) 98,15 %
18.05.2017 17:14 19,4 C 20,0 C 18,3 C 87 % 3 lf 1010,5 hPa 0,0 l/m 0 min 2 min 189 W/m 8,4 km/h (2 Bft) 100,00 %
18.05.2017 17:16 19,4 C 20,0 C 18,3 C 87 % 1 lf 1010,4 hPa 0,0 l/m 0 min 2 min 185 W/m 10,5 km/h (2 Bft) 100,00 %
18.05.2017 17:18 19,5 C 20,0 C 18,3 C 87 % 0 lf 1010,5 hPa 0,0 l/m 0 min 2 min 179 W/m 10,5 km/h (2 Bft) 100,00 %
18.05.2017 17:20 19,5 C 20,0 C 18,3 C 87 % 0 lf 1010,5 hPa 0,0 l/m 0 min 2 min 170 W/m 10,5 km/h (2 Bft) 97,87 %
18.05.2017 17:22 19,5 C 20,0 C 18,3 C 87 % 0 lf 1010,5 hPa 0,0 l/m 0 min 0 min 154 W/m 6,3 km/h (2 Bft) 100,00 %
18.05.2017 17:24 19,5 C 20,0 C 18,9 C 87 % 0 lf 1010,5 hPa 0,0 l/m 0 min 2 min 141 W/m 4,2 km/h (1 Bft) 97,87 %
18.05.2017 17:26 19,6 C 20,0 C 18,9 C 87 % 0 lf 1010,5 hPa 0,0 l/m 0 min 0 min 135 W/m 6,3 km/h (2 Bft) 100,00 %
18.05.2017 17:28 19,5 C 20,0 C 18,9 C 86 % 0 lf 1010,4 hPa 0,0 l/m 0 min 0 min 127 W/m 6,3 km/h (2 Bft) 100,00 %
18.05.2017 17:30 19,5 C 20,0 C 18,9 C 87 % 0 lf 1010,4 hPa 0,0 l/m 0 min 0 min 116 W/m 6,3 km/h (2 Bft) 100,00 %
18.05.2017 17:32 19,5 C 20,0 C 18,9 C 87 % 0 lf 1010,4 hPa 0,0 l/m 0 min 0 min 109 W/m 6,3 km/h (2 Bft) 100,00 %
18.05.2017 17:34 19,5 C 20,0 C 18,9 C 86 % 0 lf 1010,4 hPa 0,0 l/m 0 min 0 min 112 W/m 10,5 km/h (2 Bft) 93,62 %
18.05.2017 17:36 19,5 C 20,0 C 18,9 C 86 % 0 lf 1010,4 hPa 0,0 l/m 0 min 0 min 116 W/m 8,4 km/h (2 Bft) 96,00 %
18.05.2017 17:38 19,5 C 20,6 C 18,3 C 86 % 1 lf 1010,3 hPa 0,0 l/m 0 min 0 min 123 W/m 6,3 km/h (2 Bft) 95,74 %
18.05.2017 17:40 19,5 C 20,6 C 18,9 C 86 % 1 lf 1010,4 hPa 0,0 l/m 0 min 0 min 130 W/m 10,5 km/h (2 Bft) 97,83 %
18.05.2017 17:42 19,4 C 20,0 C 18,9 C 86 % 0 lf 1010,4 hPa 0,0 l/m 0 min 2 min 138 W/m 10,5 km/h (2 Bft) 97,87 %
18.05.2017 17:44 19,4 C 20,0 C 18,9 C 86 % 0 lf 1010,4 hPa 0,0 l/m 0 min 2 min 148 W/m 8,4 km/h (2 Bft) 97,87 %
18.05.2017 17:46 19,4 C 19,4 C 18,9 C 86 % 0 lf 1010,4 hPa 0,0 l/m 0 min 0 min 159 W/m 8,4 km/h (2 Bft) 97,87 %
18.05.2017 17:48 19,4 C 20,0 C 18,9 C 86 % 0 lf 1010,4 hPa 0,0 l/m 0 min 0 min 175 W/m 8,4 km/h (2 Bft) 97,87 %
18.05.2017 17:50 19,4 C 20,0 C 19,4 C 86 % 0 lf 1010,4 hPa 0,0 l/m 0 min 0 min 186 W/m 6,3 km/h (2 Bft) 97,87 %
18.05.2017 17:52 19,4 C 20,0 C 19,4 C 86 % 0 lf 1010,4 hPa 0,0 l/m 0 min 0 min 180 W/m 6,3 km/h (2 Bft) 97,83 %
18.05.2017 17:54 19,4 C 20,0 C 19,4 C 86 % 0 lf 1010,4 hPa 0,0 l/m 0 min 2 min 167 W/m 6,3 km/h (2 Bft) 97,87 %
18.05.2017 17:56 19,4 C 20,0 C 19,4 C 86 % 0 lf 1010,4 hPa 0,0 l/m 0 min 0 min 156 W/m 4,2 km/h (1 Bft) 100,00 %
18.05.2017 17:58 19,4 C 20,6 C 19,4 C 86 % 0 lf 1010,4 hPa 0,0 l/m 0 min 0 min 150 W/m 6,3 km/h (2 Bft) 97,87 %
18.05.2017 18:00 19,4 C 20,6 C 19,4 C 86 % 0 lf 1010,4 hPa 0,0 l/m 0 min 0 min 149 W/m 6,3 km/h (2 Bft) 97,87 %
18.05.2017 18:02 19,4 C 20,0 C 19,4 C 86 % 0 lf 1010,3 hPa 0,0 l/m 0 min 2 min 146 W/m 12,6 km/h (3 Bft) 95,74 %
18.05.2017 18:04 19,4 C 20,6 C 18,9 C 87 % 5 lf 1010,4 hPa 0,0 l/m 0 min 2 min 138 W/m 10,5 km/h (2 Bft) 93,48 %
18.05.2017 18:06 19,4 C 20,0 C 18,3 C 87 % 4 lf 1010,3 hPa 0,0 l/m 0 min 2 min 130 W/m 10,5 km/h (2 Bft) 97,87 %
18.05.2017 18:08 19,4 C 20,0 C 18,3 C 86 % 4 lf 1010,3 hPa 0,0 l/m 0 min 2 min 120 W/m 10,5 km/h (2 Bft) 100,00 %
18.05.2017 18:10 19,4 C 20,0 C 18,3 C 87 % 3 lf 1010,3 hPa 0,0 l/m 0 min 2 min 117 W/m 12,6 km/h (3 Bft) 100,00 %
18.05.2017 18:12 19,4 C 20,0 C 17,8 C 87 % 1 lf 1010,2 hPa 0,0 l/m 0 min 2 min 118 W/m 12,6 km/h (3 Bft) 100,00 %
18.05.2017 18:14 19,4 C 19,4 C 17,8 C 87 % 1 lf 1010,2 hPa 0,0 l/m 0 min 0 min 128 W/m 8,4 km/h (2 Bft) 95,74 %
18.05.2017 18:16 19,4 C 19,4 C 17,8 C 87 % 0 lf 1010,2 hPa 0,0 l/m 0 min 2 min 138 W/m 10,5 km/h (2 Bft) 95,65 %
18.05.2017 18:18 19,4 C 19,4 C 18,3 C 87 % 0 lf 1010,2 hPa 0,0 l/m 0 min 0 min 139 W/m 8,4 km/h (2 Bft) 97,87 %
18.05.2017 18:20 19,4 C 19,4 C 18,3 C 87 % 0 lf 1010,1 hPa 0,0 l/m 0 min 0 min 131 W/m 8,4 km/h (2 Bft) 97,87 %
18.05.2017 18:22 19,4 C 19,4 C 18,3 C 87 % 0 lf 1010,1 hPa 0,0 l/m 0 min 0 min 122 W/m 8,4 km/h (2 Bft) 95,74 %
18.05.2017 18:24 19,4 C 20,0 C 18,9 C 87 % 0 lf 1010,0 hPa 0,0 l/m 0 min 0 min 118 W/m 10,5 km/h (2 Bft) 97,87 %
18.05.2017 18:26 19,3 C 20,0 C 18,9 C 87 % 0 lf 1010,0 hPa 0,0 l/m 0 min 0 min 122 W/m 14,6 km/h (3 Bft) 89,36 %
18.05.2017 18:28 19,3 C 20,0 C 18,9 C 87 % 0 lf 1009,9 hPa 0,0 l/m 0 min 0 min 125 W/m 10,5 km/h (2 Bft) 97,83 %
18.05.2017 18:30 19,3 C 20,0 C 18,9 C 87 % 0 lf 1009,9 hPa 0,0 l/m 0 min 0 min 125 W/m 12,6 km/h (3 Bft) 97,87 %
18.05.2017 18:32 19,3 C 20,0 C 18,9 C 87 % 0 lf 1009,9 hPa 0,0 l/m 0 min 0 min 135 W/m 12,6 km/h (3 Bft) 93,62 %
18.05.2017 18:34 19,3 C 20,0 C 18,9 C 87 % 0 lf 1009,9 hPa 0,0 l/m 0 min 0 min 152 W/m 12,6 km/h (3 Bft) 97,87 %
18.05.2017 18:36 19,2 C 20,0 C 19,4 C 87 % 0 lf 1009,9 hPa 0,0 l/m 0 min 0 min 163 W/m 14,6 km/h (3 Bft) 98,15 %
18.05.2017 18:38 19,3 C 20,0 C 19,4 C 87 % 0 lf 1009,9 hPa 0,0 l/m 0 min 0 min 154 W/m 12,6 km/h (3 Bft) 93,62 %
18.05.2017 18:40 19,3 C 20,0 C 19,4 C 87 % 0 lf 1009,8 hPa 0,0 l/m 0 min 0 min 141 W/m 10,5 km/h (2 Bft) 97,87 %
18.05.2017 18:42 19,2 C 20,0 C 19,4 C 87 % 0 lf 1009,8 hPa 0,0 l/m 0 min 0 min 133 W/m 14,6 km/h (3 Bft) 97,22 %
18.05.2017 18:44 19,2 C 20,0 C 19,4 C 87 % 0 lf 1009,8 hPa 0,0 l/m 0 min 0 min 119 W/m 10,5 km/h (2 Bft) 97,87 %
18.05.2017 18:46 19,2 C 20,0 C 18,9 C 87 % 0 lf 1009,8 hPa 0,0 l/m 0 min 0 min 103 W/m 14,6 km/h (3 Bft) 97,87 %
18.05.2017 18:48 19,2 C 19,4 C 18,9 C 87 % 0 lf 1009,9 hPa 0,0 l/m 0 min 0 min 91 W/m 18,8 km/h (3 Bft) 97,87 %
18.05.2017 18:50 19,2 C 19,4 C 18,9 C 87 % 0 lf 1009,9 hPa 0,0 l/m 0 min 0 min 89 W/m 14,6 km/h (3 Bft) 95,74 %
18.05.2017 18:52 19,2 C 19,4 C 18,9 C 86 % 0 lf 1009,9 hPa 0,0 l/m 0 min 0 min 87 W/m 14,6 km/h (3 Bft) 97,83 %
18.05.2017 18:54 19,2 C 19,4 C 18,9 C 86 % 0 lf 1009,8 hPa 0,0 l/m 0 min 0 min 85 W/m 16,7 km/h (3 Bft) 95,74 %
18.05.2017 18:56 19,2 C 19,4 C 18,3 C 86 % 0 lf 1009,8 hPa 0,0 l/m 0 min 0 min 82 W/m 12,6 km/h (3 Bft) 95,74 %
18.05.2017 18:58 19,2 C 19,4 C 18,3 C 86 % 0 lf 1009,8 hPa 0,0 l/m 0 min 0 min 74 W/m 6,3 km/h (2 Bft) 95,74 %
18.05.2017 19:00 19,2 C 19,4 C 18,3 C 86 % 0 lf 1009,7 hPa 0,0 l/m 0 min 0 min 67 W/m 10,5 km/h (2 Bft) 97,87 %
18.05.2017 19:02 19,2 C 19,4 C 18,3 C 86 % 0 lf 1009,8 hPa 0,0 l/m 0 min 0 min 66 W/m 12,6 km/h (3 Bft) 95,65 %
18.05.2017 19:04 19,1 C 19,4 C 18,3 C 86 % 0 lf 1009,7 hPa 0,0 l/m 0 min 0 min 69 W/m 14,6 km/h (3 Bft) 95,74 %
18.05.2017 19:06 19,1 C 19,4 C 18,3 C 86 % 0 lf 1009,7 hPa 0,0 l/m 0 min 0 min 81 W/m 14,6 km/h (3 Bft) 96,00 %
18.05.2017 19:08 19,1 C 19,4 C 18,3 C 86 % 0 lf 1009,8 hPa 0,0 l/m 0 min 0 min 95 W/m 14,6 km/h (3 Bft) 93,62 %
18.05.2017 19:10 19,1 C 19,4 C 18,3 C 86 % 0 lf 1009,7 hPa 0,0 l/m 0 min 0 min 102 W/m 14,6 km/h (3 Bft) 93,62 %
18.05.2017 19:12 19,1 C 19,4 C 18,3 C 86 % 0 lf 1009,7 hPa 0,0 l/m 0 min 0 min 106 W/m 12,6 km/h (3 Bft) 89,36 %
18.05.2017 19:14 19,1 C 19,4 C 18,9 C 86 % 0 lf 1009,7 hPa 0,0 l/m 0 min 0 min 103 W/m 14,6 km/h (3 Bft) 93,62 %
18.05.2017 19:16 19,1 C 19,4 C 18,9 C 86 % 0 lf 1009,7 hPa 0,0 l/m 0 min 0 min 97 W/m 12,6 km/h (3 Bft) 97,83 %
18.05.2017 19:18 19,1 C 20,0 C 18,9 C 86 % 0 lf 1009,8 hPa 0,0 l/m 0 min 0 min 90 W/m 10,5 km/h (2 Bft) 95,74 %
18.05.2017 19:20 19,1 C 20,0 C 18,9 C 86 % 0 lf 1009,7 hPa 0,0 l/m 0 min 0 min 86 W/m 14,6 km/h (3 Bft) 95,74 %
18.05.2017 19:22 19,1 C 19,4 C 18,3 C 86 % 0 lf 1009,7 hPa 0,0 l/m 0 min 0 min 95 W/m 14,6 km/h (3 Bft) 91,49 %
18.05.2017 19:24 19,1 C 20,0 C 18,3 C 86 % 0 lf 1009,7 hPa 0,0 l/m 0 min 0 min 135 W/m 12,6 km/h (3 Bft) 93,62 %
18.05.2017 19:26 19,1 C 20,0 C 18,9 C 86 % 0 lf 1009,7 hPa 0,0 l/m 2 min 0 min 163 W/m 14,6 km/h (3 Bft) 93,62 %
18.05.2017 19:28 19,1 C 20,0 C 18,9 C 87 % 0 lf 1009,6 hPa 0,0 l/m 2 min 0 min 199 W/m 12,6 km/h (3 Bft) 93,48 %
18.05.2017 19:30 19,1 C 20,0 C 18,9 C 87 % 0 lf 1009,5 hPa 0,0 l/m 2 min 0 min 293 W/m 14,6 km/h (3 Bft) 93,62 %
18.05.2017 19:32 19,1 C 20,6 C 18,9 C 87 % 0 lf 1009,5 hPa 0,0 l/m 2 min 0 min 296 W/m 12,6 km/h (3 Bft) 89,36 %
18.05.2017 19:34 19,2 C 20,6 C 19,4 C 87 % 0 lf 1009,5 hPa 0,0 l/m 2 min 0 min 281 W/m 12,6 km/h (3 Bft) 93,62 %
18.05.2017 19:36 19,2 C 20,6 C 19,4 C 88 % 0 lf 1009,4 hPa 0,0 l/m 2 min 0 min 275 W/m 8,4 km/h (2 Bft) 89,36 %
18.05.2017 19:38 19,2 C 20,6 C 19,4 C 88 % 0 lf 1009,4 hPa 0,0 l/m 2 min 0 min 196 W/m 12,6 km/h (3 Bft) 93,48 %
18.05.2017 19:40 19,3 C 20,6 C 19,4 C 88 % 0 lf 1009,4 hPa 0,0 l/m 2 min 0 min 210 W/m 16,7 km/h (3 Bft) 93,62 %
18.05.2017 19:42 19,3 C 20,0 C 19,4 C 88 % 0 lf 1009,3 hPa 0,0 l/m 2 min 0 min 233 W/m 16,7 km/h (3 Bft) 93,62 %
18.05.2017 19:44 19,3 C 20,0 C 19,4 C 88 % 0 lf 1009,3 hPa 0,0 l/m 2 min 0 min 210 W/m 10,5 km/h (2 Bft) 93,62 %
18.05.2017 19:46 19,3 C 20,0 C 19,4 C 88 % 0 lf 1009,3 hPa 0,0 l/m 2 min 0 min 219 W/m 4,2 km/h (1 Bft) 91,49 %
18.05.2017 19:48 19,3 C 20,0 C 19,4 C 88 % 0 lf 1009,2 hPa 0,0 l/m 2 min 0 min 180 W/m 12,6 km/h (3 Bft) 91,49 %
18.05.2017 19:50 19,3 C 20,0 C 19,4 C 88 % 0 lf 1009,2 hPa 0,0 l/m 2 min 0 min 158 W/m 14,6 km/h (3 Bft) 93,48 %
18.05.2017 19:52 19,3 C 19,4 C 18,9 C 87 % 0 lf 1009,2 hPa 0,0 l/m 2 min 0 min 129 W/m 10,5 km/h (2 Bft) 93,62 %
18.05.2017 19:54 19,3 C 19,4 C 18,3 C 87 % 0 lf 1009,1 hPa 0,0 l/m 2 min 0 min 137 W/m 16,7 km/h (3 Bft) 95,74 %
18.05.2017 19:56 19,3 C 19,4 C 18,3 C 87 % 0 lf 1009,1 hPa 0,0 l/m 2 min 0 min 148 W/m 14,6 km/h (3 Bft) 97,87 %
18.05.2017 19:58 19,3 C 19,4 C 18,3 C 87 % 0 lf 1009,1 hPa 0,0 l/m 2 min 0 min 151 W/m 8,4 km/h (2 Bft) 97,87 %
18.05.2017 20:00 19,2 C 19,4 C 18,3 C 87 % 0 lf 1009,1 hPa 0,0 l/m 2 min 0 min 143 W/m 10,5 km/h (2 Bft) 97,87 %
18.05.2017 20:02 19,2 C 19,4 C 18,3 C 87 % 0 lf 1009,1 hPa 0,0 l/m 2 min 0 min 94 W/m 12,6 km/h (3 Bft) 95,65 %
18.05.2017 20:04 19,2 C 19,4 C 18,3 C 87 % 0 lf 1009,0 hPa 0,0 l/m 0 min 0 min 81 W/m 8,4 km/h (2 Bft) 97,87 %
18.05.2017 20:06 19,2 C 19,4 C 18,3 C 87 % 0 lf 1009,1 hPa 0,0 l/m 0 min 0 min 81 W/m 10,5 km/h (2 Bft) 95,45 %
18.05.2017 20:08 19,2 C 19,4 C 18,3 C 87 % 0 lf 1009,0 hPa 0,0 l/m 2 min 0 min 111 W/m 16,7 km/h (3 Bft) 100,00 %
18.05.2017 20:10 19,2 C 19,4 C 18,3 C 87 % 0 lf 1009,0 hPa 0,0 l/m 2 min 0 min 113 W/m 16,7 km/h (3 Bft) 100,00 %
18.05.2017 20:12 19,2 C 19,4 C 18,3 C 87 % 0 lf 1009,0 hPa 0,0 l/m 2 min 0 min 123 W/m 14,6 km/h (3 Bft) 100,00 %
18.05.2017 20:14 19,2 C 19,4 C 18,3 C 86 % 0 lf 1008,9 hPa 0,0 l/m 2 min 0 min 112 W/m 12,6 km/h (3 Bft) 100,00 %
18.05.2017 20:16 19,1 C 19,4 C 17,8 C 86 % 0 lf 1008,9 hPa 0,0 l/m 2 min 0 min 104 W/m 10,5 km/h (2 Bft) 97,87 %
18.05.2017 20:18 19,1 C 18,9 C 17,8 C 86 % 0 lf 1009,0 hPa 0,0 l/m 2 min 0 min 94 W/m 12,6 km/h (3 Bft) 95,74 %
18.05.2017 20:20 19,1 C 18,9 C 17,8 C 86 % 0 lf 1009,0 hPa 0,0 l/m 2 min 0 min 88 W/m 10,5 km/h (2 Bft) 98,31 %
18.05.2017 20:22 19,1 C 18,9 C 17,8 C 86 % 0 lf 1009,0 hPa 0,0 l/m 2 min 0 min 80 W/m 10,5 km/h (2 Bft) 100,00 %
18.05.2017 20:24 19,1 C 18,9 C 17,8 C 86 % 0 lf 1008,9 hPa 0,0 l/m 2 min 0 min 73 W/m 12,6 km/h (3 Bft) 100,00 %
18.05.2017 20:26 19,1 C 18,9 C 17,2 C 86 % 0 lf 1008,9 hPa 0,0 l/m 2 min 0 min 69 W/m 14,6 km/h (3 Bft) 97,87 %
18.05.2017 20:28 19,0 C 18,9 C 17,2 C 86 % 0 lf 1008,9 hPa 0,0 l/m 2 min 0 min 59 W/m 12,6 km/h (3 Bft) 100,00 %
18.05.2017 20:30 19,0 C 18,9 C 17,2 C 87 % 0 lf 1008,8 hPa 0,0 l/m 0 min 0 min 52 W/m 10,5 km/h (2 Bft) 100,00 %
18.05.2017 20:32 19,0 C 18,3 C 17,2 C 87 % 0 lf 1008,9 hPa 0,0 l/m 0 min 0 min 47 W/m 10,5 km/h (2 Bft) 100,00 %
18.05.2017 20:34 18,9 C 18,3 C 17,2 C 87 % 0 lf 1008,8 hPa 0,0 l/m 0 min 0 min 35 W/m 10,5 km/h (2 Bft) 97,87 %
18.05.2017 20:36 18,9 C 18,3 C 17,2 C 87 % 0 lf 1008,9 hPa 0,0 l/m 0 min 0 min 35 W/m 12,6 km/h (3 Bft) 98,21 %
18.05.2017 20:38 18,9 C 18,3 C 16,7 C 87 % 1 lf 1008,8 hPa 0,0 l/m 0 min 0 min 37 W/m 16,7 km/h (3 Bft) 100,00 %
18.05.2017 20:40 18,8 C 18,3 C 16,7 C 87 % 1 lf 1008,8 hPa 0,0 l/m 0 min 0 min 34 W/m 12,6 km/h (3 Bft) 100,00 %
18.05.2017 20:42 18,8 C 18,3 C 16,7 C 87 % 1 lf 1008,9 hPa 0,0 l/m 0 min 0 min 27 W/m 10,5 km/h (2 Bft) 97,22 %
18.05.2017 20:44 18,8 C 18,3 C 16,7 C 87 % 1 lf 1008,8 hPa 0,0 l/m 0 min 0 min 23 W/m 10,5 km/h (2 Bft) 100,00 %
18.05.2017 20:46 18,8 C 18,3 C 16,7 C 87 % 1 lf 1008,8 hPa 0,0 l/m 0 min 0 min 25 W/m 6,3 km/h (2 Bft) 97,87 %
18.05.2017 20:48 18,7 C 18,3 C 16,7 C 87 % 1 lf 1008,9 hPa 0,0 l/m 0 min 0 min 26 W/m 8,4 km/h (2 Bft) 100,00 %
18.05.2017 20:50 18,7 C 18,3 C 16,7 C 87 % 1 lf 1008,9 hPa 0,0 l/m 0 min 0 min 27 W/m 10,5 km/h (2 Bft) 100,00 %
18.05.2017 20:52 18,7 C 18,3 C 16,7 C 88 % 1 lf 1008,9 hPa 0,0 l/m 0 min 0 min 28 W/m 4,2 km/h (1 Bft) 97,87 %
18.05.2017 20:54 18,7 C 18,3 C 16,7 C 88 % 1 lf 1008,8 hPa 0,0 l/m 2 min 0 min 28 W/m 6,3 km/h (2 Bft) 100,00 %
18.05.2017 20:56 18,7 C 18,3 C 16,7 C 88 % 1 lf 1008,8 hPa 0,0 l/m 2 min 0 min 25 W/m 10,5 km/h (2 Bft) 100,00 %
18.05.2017 20:58 18,7 C 18,3 C 16,7 C 88 % 1 lf 1008,8 hPa 0,0 l/m 0 min 0 min 21 W/m 10,5 km/h (2 Bft) 97,87 %
18.05.2017 21:00 18,7 C 17,8 C 16,7 C 88 % 1 lf 1008,8 hPa 0,0 l/m 0 min 0 min 17 W/m 12,6 km/h (3 Bft) 100,00 %
18.05.2017 21:02 18,6 C 17,8 C 16,7 C 88 % 1 lf 1008,8 hPa 0,0 l/m 0 min 0 min 14 W/m 8,4 km/h (2 Bft) 95,74 %
18.05.2017 21:04 18,6 C 17,8 C 16,7 C 88 % 1 lf 1008,8 hPa 0,0 l/m 0 min 0 min 12 W/m 8,4 km/h (2 Bft) 97,87 %
18.05.2017 21:06 18,6 C 17,8 C 16,7 C 89 % 1 lf 1008,8 hPa 0,0 l/m 0 min 0 min 11 W/m 8,4 km/h (2 Bft) 100,00 %
18.05.2017 21:08 18,5 C 17,8 C 16,1 C 89 % 1 lf 1008,8 hPa 0,0 l/m 0 min 0 min 9 W/m 6,3 km/h (2 Bft) 100,00 %
18.05.2017 21:10 18,5 C 17,8 C 16,1 C 89 % 1 lf 1008,8 hPa 0,0 l/m 0 min 0 min 9 W/m 6,3 km/h (2 Bft) 95,74 %
18.05.2017 21:12 18,5 C 17,8 C 16,1 C 89 % 1 lf 1008,7 hPa 0,0 l/m 0 min 0 min 7 W/m 4,2 km/h (1 Bft) 100,00 %
18.05.2017 21:14 18,4 C 17,8 C 16,1 C 89 % 1 lf 1008,7 hPa 0,0 l/m 0 min 0 min 7 W/m 4,2 km/h (1 Bft) 100,00 %
18.05.2017 21:16 18,4 C 17,2 C 16,1 C 89 % 2 lf 1008,7 hPa 0,0 l/m 0 min 0 min 7 W/m 4,2 km/h (1 Bft) 100,00 %
18.05.2017 21:18 18,4 C 17,2 C 16,1 C 89 % 2 lf 1008,7 hPa 0,0 l/m 0 min 0 min 7 W/m 4,2 km/h (1 Bft) 95,74 %
18.05.2017 21:20 18,4 C 17,2 C 15,6 C 89 % 2 lf 1008,7 hPa 0,0 l/m 0 min 0 min 5 W/m 4,2 km/h (1 Bft) 97,87 %
18.05.2017 21:22 18,4 C 17,2 C 15,6 C 89 % 2 lf 1008,7 hPa 0,0 l/m 0 min 0 min 5 W/m 6,3 km/h (2 Bft) 100,00 %
18.05.2017 21:24 18,3 C 17,2 C 15,6 C 89 % 2 lf 1008,7 hPa 0,0 l/m 0 min 0 min 5 W/m 4,2 km/h (1 Bft) 100,00 %
18.05.2017 21:26 18,3 C 17,2 C 15,6 C 89 % 2 lf 1008,7 hPa 0,0 l/m 0 min 0 min 5 W/m 0,0 km/h (0 Bft) 100,00 %
18.05.2017 21:28 18,3 C 17,2 C 15,6 C 89 % 2 lf 1008,7 hPa 0,0 l/m 0 min 0 min 5 W/m 0,0 km/h (0 Bft) 93,62 %
18.05.2017 21:30 18,2 C 16,7 C 15,6 C 89 % 3 lf 1008,7 hPa 0,0 l/m 0 min 0 min 0 W/m 0,0 km/h (0 Bft) 97,87 %
18.05.2017 21:32 18,2 C 16,7 C 15,6 C 89 % 3 lf 1008,6 hPa 0,0 l/m 0 min 0 min 0 W/m 0,0 km/h (0 Bft) 97,96 %
18.05.2017 21:34 18,2 C 16,7 C 15,6 C 89 % 3 lf 1008,7 hPa 0,0 l/m 0 min 0 min 0 W/m 0,0 km/h (0 Bft) 97,83 %
18.05.2017 21:36 18,2 C 16,7 C 15,6 C 89 % 3 lf 1008,7 hPa 0,0 l/m 0 min 0 min 0 W/m 0,0 km/h (0 Bft) 97,87 %
18.05.2017 21:38 18,1 C 16,7 C 15,0 C 89 % 3 lf 1008,8 hPa 0,0 l/m 0 min 0 min 0 W/m 0,0 km/h (0 Bft) 100,00 %
18.05.2017 21:40 18,1 C 16,7 C 15,0 C 89 % 3 lf 1008,7 hPa 0,0 l/m 0 min 0 min 0 W/m 8,4 km/h (2 Bft) 95,74 %
18.05.2017 21:42 18,1 C 16,7 C 15,0 C 90 % 3 lf 1008,7 hPa 0,0 l/m 0 min 0 min 0 W/m 10,5 km/h (2 Bft) 97,87 %
18.05.2017 21:44 18,1 C 16,7 C 15,6 C 90 % 3 lf 1008,7 hPa 0,0 l/m 0 min 0 min 0 W/m 10,5 km/h (2 Bft) 97,87 %
18.05.2017 21:46 18,1 C 16,7 C 15,6 C 90 % 4 lf 1008,7 hPa 0,0 l/m 0 min 0 min 0 W/m 10,5 km/h (2 Bft) 95,65 %
18.05.2017 21:48 18,0 C 16,7 C 15,0 C 90 % 4 lf 1008,7 hPa 0,0 l/m 0 min 0 min 0 W/m 6,3 km/h (2 Bft) 95,74 %
18.05.2017 21:50 18,0 C 16,7 C 15,0 C 90 % 4 lf 1008,7 hPa 0,0 l/m 0 min 0 min 0 W/m 10,5 km/h (2 Bft) 95,74 %
18.05.2017 21:52 17,9 C 16,7 C 15,0 C 90 % 4 lf 1008,6 hPa 0,0 l/m 0 min 0 min 0 W/m 6,3 km/h (2 Bft) 91,49 %
18.05.2017 21:54 17,9 C 16,7 C 15,0 C 90 % 4 lf 1008,7 hPa 0,0 l/m 0 min 0 min 0 W/m 10,5 km/h (2 Bft) 89,36 %
18.05.2017 21:56 17,9 C 16,7 C 15,0 C 90 % 4 lf 1008,6 hPa 0,0 l/m 0 min 0 min 0 W/m 4,2 km/h (1 Bft) 93,62 %
18.05.2017 21:58 17,8 C 16,7 C 15,0 C 90 % 4 lf 1008,6 hPa 0,0 l/m 0 min 0 min 0 W/m 10,5 km/h (2 Bft) 93,48 %
18.05.2017 22:00 17,8 C 16,7 C 15,0 C 91 % 4 lf 1008,6 hPa 0,0 l/m 0 min 0 min 0 W/m 4,2 km/h (1 Bft) 93,62 %
18.05.2017 22:02 17,8 C 16,7 C 15,0 C 91 % 4 lf 1008,5 hPa 0,0 l/m 0 min 0 min 0 W/m 6,3 km/h (2 Bft) 93,62 %
18.05.2017 22:04 17,7 C 16,7 C 15,0 C 91 % 5 lf 1008,6 hPa 0,0 l/m 0 min 0 min 0 W/m 4,2 km/h (1 Bft) 91,49 %
18.05.2017 22:06 17,7 C 16,1 C 15,0 C 91 % 5 lf 1008,5 hPa 0,0 l/m 0 min 0 min 0 W/m 4,2 km/h (1 Bft) 91,49 %
18.05.2017 22:08 17,7 C 16,1 C 15,0 C 91 % 5 lf 1008,6 hPa 0,0 l/m 0 min 0 min 0 W/m 0,0 km/h (0 Bft) 93,62 %
18.05.2017 22:10 17,7 C 16,1 C 15,0 C 91 % 5 lf 1008,6 hPa 0,0 l/m 0 min 0 min 0 W/m 2,1 km/h (1 Bft) 91,30 %
18.05.2017 22:12 17,6 C 16,1 C 15,0 C 91 % 5 lf 1008,5 hPa 0,0 l/m 0 min 0 min 0 W/m 6,3 km/h (2 Bft) 91,67 %
18.05.2017 22:14 17,6 C 16,1 C 15,0 C 91 % 5 lf 1008,5 hPa 0,2 l/m 0 min 0 min 0 W/m 2,1 km/h (1 Bft) 93,62 %
18.05.2017 22:16 17,6 C 16,1 C 15,0 C 91 % 5 lf 1008,5 hPa 0,0 l/m 0 min 0 min 0 W/m 2,1 km/h (1 Bft) 93,62 %
18.05.2017 22:18 17,5 C 16,1 C 15,0 C 91 % 5 lf 1008,5 hPa 0,0 l/m 0 min 0 min 0 W/m 2,1 km/h (1 Bft) 89,36 %
18.05.2017 22:20 17,5 C 16,1 C 15,0 C 91 % 5 lf 1008,5 hPa 0,0 l/m 0 min 0 min 0 W/m 0,0 km/h (0 Bft) 91,30 %
18.05.2017 22:22 17,5 C 16,1 C 15,0 C 91 % 5 lf 1008,5 hPa 0,0 l/m 0 min 0 min 0 W/m 0,0 km/h (0 Bft) 91,49 %
18.05.2017 22:24 17,4 C 16,1 C 15,0 C 91 % 4 lf 1008,4 hPa 0,0 l/m 0 min 0 min 0 W/m 4,2 km/h (1 Bft) 93,62 %
18.05.2017 22:26 17,4 C 16,1 C 15,0 C 91 % 4 lf 1008,4 hPa 0,0 l/m 0 min 0 min 0 W/m 6,3 km/h (2 Bft) 93,62 %
18.05.2017 22:28 17,4 C 16,1 C 15,0 C 91 % 4 lf 1008,4 hPa 0,0 l/m 0 min 0 min 0 W/m 6,3 km/h (2 Bft) 93,62 %
18.05.2017 22:30 17,4 C 16,1 C 15,0 C 92 % 4 lf 1008,3 hPa 0,0 l/m 0 min 0 min 0 W/m 6,3 km/h (2 Bft) 93,62 %
18.05.2017 22:32 17,4 C 16,1 C 15,0 C 92 % 3 lf 1008,3 hPa 0,0 l/m 0 min 0 min 0 W/m 6,3 km/h (2 Bft) 95,74 %
18.05.2017 22:34 17,3 C 16,1 C 15,0 C 92 % 3 lf 1008,2 hPa 0,0 l/m 0 min 0 min 0 W/m 10,5 km/h (2 Bft) 93,62 %
18.05.2017 22:36 17,3 C 16,1 C 15,0 C 92 % 3 lf 1008,2 hPa 0,0 l/m 0 min 0 min 0 W/m 6,3 km/h (2 Bft) 89,58 %
18.05.2017 22:38 17,3 C 16,7 C 15,0 C 92 % 3 lf 1008,2 hPa 0,0 l/m 0 min 0 min 0 W/m 8,4 km/h (2 Bft) 91,49 %
18.05.2017 22:40 17,3 C 16,7 C 15,0 C 92 % 3 lf 1008,3 hPa 0,0 l/m 0 min 0 min 0 W/m 4,2 km/h (1 Bft) 91,49 %
18.05.2017 22:42 17,3 C 16,7 C 15,0 C 92 % 3 lf 1008,1 hPa 0,0 l/m 0 min 0 min 0 W/m 8,4 km/h (2 Bft) 95,74 %
18.05.2017 22:44 17,2 C 16,7 C 15,6 C 92 % 3 lf 1008,1 hPa 0,0 l/m 0 min 0 min 0 W/m 10,5 km/h (2 Bft) 95,74 %
18.05.2017 22:46 17,2 C 16,7 C 15,6 C 92 % 3 lf 1008,1 hPa 0,0 l/m 0 min 0 min 0 W/m 6,3 km/h (2 Bft) 93,48 %
18.05.2017 22:48 17,2 C 16,7 C 15,6 C 93 % 3 lf 1008,2 hPa 0,0 l/m 0 min 0 min 0 W/m 6,3 km/h (2 Bft) 93,62 %
18.05.2017 22:50 17,2 C 16,7 C 15,6 C 93 % 3 lf 1008,1 hPa 0,0 l/m 0 min 0 min 0 W/m 10,5 km/h (2 Bft) 95,74 %
18.05.2017 22:52 17,2 C 16,7 C 15,6 C 93 % 3 lf 1008,2 hPa 0,0 l/m 0 min 0 min 0 W/m 10,5 km/h (2 Bft) 93,62 %
18.05.2017 22:54 17,2 C 16,7 C 15,6 C 93 % 3 lf 1008,1 hPa 0,0 l/m 0 min 0 min 0 W/m 10,5 km/h (2 Bft) 100,00 %
18.05.2017 22:56 17,2 C 16,7 C 15,6 C 93 % 3 lf 1008,1 hPa 0,0 l/m 0 min 0 min 0 W/m 12,6 km/h (3 Bft) 97,87 %
18.05.2017 22:58 17,2 C 16,7 C 15,6 C 93 % 3 lf 1008,1 hPa 0,0 l/m 0 min 0 min 0 W/m 10,5 km/h (2 Bft) 97,83 %
18.05.2017 23:00 17,2 C 16,7 C 15,6 C 93 % 3 lf 1008,1 hPa 0,0 l/m 0 min 0 min 0 W/m 6,3 km/h (2 Bft) 97,87 %
18.05.2017 23:02 17,2 C 16,7 C 15,6 C 93 % 3 lf 1008,1 hPa 0,0 l/m 0 min 0 min 0 W/m 10,5 km/h (2 Bft) 97,87 %
18.05.2017 23:04 17,2 C 16,7 C 15,6 C 93 % 3 lf 1008,1 hPa 0,0 l/m 0 min 0 min 0 W/m 10,5 km/h (2 Bft) 97,87 %
18.05.2017 23:06 17,2 C 16,7 C 15,6 C 94 % 3 lf 1008,1 hPa 0,0 l/m 0 min 0 min 0 W/m 10,5 km/h (2 Bft) 97,87 %
18.05.2017 23:08 17,2 C 16,7 C 15,0 C 94 % 3 lf 1008,2 hPa 0,0 l/m 0 min 0 min 0 W/m 10,5 km/h (2 Bft) 97,83 %
18.05.2017 23:10 17,2 C 16,7 C 15,0 C 94 % 4 lf 1008,1 hPa 0,0 l/m 0 min 0 min 0 W/m 10,5 km/h (2 Bft) 100,00 %
18.05.2017 23:12 17,2 C 16,7 C 15,0 C 94 % 4 lf 1008,0 hPa 0,0 l/m 0 min 0 min 0 W/m 6,3 km/h (2 Bft) 100,00 %
18.05.2017 23:14 17,1 C 16,7 C 15,0 C 94 % 4 lf 1008,1 hPa 0,0 l/m 0 min 0 min 0 W/m 6,3 km/h (2 Bft) 100,00 %
18.05.2017 23:16 17,1 C 16,7 C 15,0 C 94 % 4 lf 1008,1 hPa 0,0 l/m 0 min 0 min 0 W/m 4,2 km/h (1 Bft) 95,74 %
18.05.2017 23:18 17,1 C 16,1 C 15,0 C 94 % 5 lf 1008,1 hPa 0,0 l/m 0 min 0 min 0 W/m 6,3 km/h (2 Bft) 97,87 %
18.05.2017 23:20 17,1 C 16,1 C 14,4 C 94 % 5 lf 1008,1 hPa 0,0 l/m 0 min 0 min 0 W/m 2,1 km/h (1 Bft) 100,00 %
18.05.2017 23:22 17,1 C 16,1 C 14,4 C 94 % 6 lf 1008,1 hPa 0,0 l/m 0 min 0 min 0 W/m 6,3 km/h (2 Bft) 100,00 %
18.05.2017 23:24 17,1 C 16,1 C 14,4 C 94 % 6 lf 1008,0 hPa 0,0 l/m 0 min 0 min 0 W/m 6,3 km/h (2 Bft) 100,00 %
18.05.2017 23:26 17,1 C 16,1 C 14,4 C 94 % 7 lf 1008,0 hPa 0,0 l/m 0 min 0 min 0 W/m 6,3 km/h (2 Bft) 91,49 %
18.05.2017 23:28 17,0 C 16,1 C 14,4 C 94 % 7 lf 1008,1 hPa 0,0 l/m 0 min 0 min 0 W/m 6,3 km/h (2 Bft) 97,87 %
18.05.2017 23:30 17,0 C 16,1 C 14,4 C 94 % 8 lf 1008,0 hPa 0,0 l/m 0 min 0 min 0 W/m 6,3 km/h (2 Bft) 97,87 %
18.05.2017 23:32 16,9 C 16,1 C 14,4 C 94 % 8 lf 1008,0 hPa 0,0 l/m 0 min 0 min 0 W/m 6,3 km/h (2 Bft) 98,11 %
18.05.2017 23:34 16,9 C 16,1 C 14,4 C 94 % 8 lf 1007,9 hPa 0,0 l/m 0 min 0 min 0 W/m 4,2 km/h (1 Bft) 95,74 %
18.05.2017 23:36 16,9 C 16,1 C 14,4 C 94 % 9 lf 1008,0 hPa 0,0 l/m 0 min 0 min 0 W/m 4,2 km/h (1 Bft) 96,15 %
18.05.2017 23:38 16,9 C 16,1 C 14,4 C 94 % 9 lf 1008,0 hPa 0,0 l/m 0 min 0 min 0 W/m 4,2 km/h (1 Bft) 95,74 %
18.05.2017 23:40 16,9 C 16,1 C 14,4 C 94 % 9 lf 1008,0 hPa 0,0 l/m 0 min 0 min 0 W/m 4,2 km/h (1 Bft) 97,87 %
18.05.2017 23:42 16,9 C 16,1 C 14,4 C 94 % 9 lf 1007,9 hPa 0,0 l/m 0 min 0 min 0 W/m 6,3 km/h (2 Bft) 94,29 %
18.05.2017 23:44 16,8 C 16,1 C 14,4 C 94 % 10 lf 1007,9 hPa 0,0 l/m 0 min 0 min 0 W/m 10,5 km/h (2 Bft) 97,87 %
18.05.2017 23:46 16,8 C 16,1 C 14,4 C 94 % 10 lf 1007,9 hPa 0,0 l/m 0 min 0 min 0 W/m 10,5 km/h (2 Bft) 97,83 %
18.05.2017 23:48 16,8 C 16,1 C 14,4 C 94 % 10 lf 1007,9 hPa 0,0 l/m 0 min 0 min 0 W/m 6,3 km/h (2 Bft) 93,62 %
18.05.2017 23:50 16,8 C 16,1 C 14,4 C 94 % 10 lf 1007,9 hPa 0,0 l/m 0 min 0 min 0 W/m 6,3 km/h (2 Bft) 97,87 %
18.05.2017 23:52 16,8 C 16,1 C 14,4 C 94 % 11 lf 1007,8 hPa 0,0 l/m 0 min 0 min 0 W/m 10,5 km/h (2 Bft) 95,74 %
18.05.2017 23:54 16,7 C 16,1 C 14,4 C 94 % 11 lf 1007,8 hPa 0,0 l/m 0 min 0 min 0 W/m 6,3 km/h (2 Bft) 97,87 %
18.05.2017 23:56 16,7 C 16,1 C 14,4 C 94 % 11 lf 1007,7 hPa 0,0 l/m 0 min 0 min 0 W/m 6,3 km/h (2 Bft) 97,87 %
18.05.2017 23:58 16,7 C 16,1 C 14,4 C 94 % 12 lf 1007,8 hPa 0,0 l/m 0 min 0 min 0 W/m 6,3 km/h (2 Bft) 95,65 %
_ Min-Zeit 23:54 22:06 23:20 00:00 00:00 23:56 - - - - 12:56 04:26
Minimum _ 16,7 C 16,1 C 14,4 C 59 % 0 lf 1007,7 hPa - - - - 0,0 km/h (0 Bft) 87,23 %
_ Max-Zeit 00:00 15:52 15:52 13:04 06:26 12:00 06:42 15:26 06:22 15:52 05:48 00:38
Maximum _ 22,3 C 25,6 C 22,2 C 94 % 15 lf 1011,9 hPa 0,2 l/m 2 min 2 min 575 W/m 18,8 km/h
W-SW (3 Bft)
100,00 %
Durchschnitt _ 18,7 C 18,7 C 17,0 C 84 % 5 lf 1010,0 hPa #3,2 l/m #1:16 h #6:40 h 123 W/m 8,4 km/h (2 Bft) 96,25 %
© 2017 W. Hausmann